Wetterdaten: Donnerstag, 22.02.2018
Datum Zeit Temp. Aussen Temp. o. S. +5cm Feuchte Auss BlattFeu 1 Luftdruck Regen Sonnenschein Regendauer Solar Windben Empfang
22.02.2018 00:00 -0,8 C -1,7 C -3,3 C 82 % 0 lf 1023,1 hPa 0,0 l/m 0 min 0 min 0 W/m 22,5 km/h (4 Bft) 100,00 %
22.02.2018 00:02 -0,8 C -1,7 C -2,8 C 82 % 0 lf 1023,1 hPa 0,0 l/m 0 min 0 min 0 W/m 13,5 km/h (3 Bft) 14,29 %
22.02.2018 00:04 -0,8 C -1,1 C -2,8 C 82 % 0 lf 1023,1 hPa 0,0 l/m 0 min 0 min 0 W/m 20,3 km/h (4 Bft) 79,55 %
22.02.2018 00:08 -0,8 C -1,1 C -3,3 C 82 % 0 lf 1023,1 hPa 0,0 l/m 0 min 0 min 0 W/m 22,5 km/h (4 Bft) 97,06 %
22.02.2018 00:10 -0,8 C -1,7 C -3,3 C 82 % 0 lf 1023,1 hPa 0,0 l/m 0 min 0 min 0 W/m 20,3 km/h (4 Bft) 97,87 %
22.02.2018 00:12 -0,8 C -1,7 C -3,3 C 82 % 0 lf 1023,1 hPa 0,0 l/m 0 min 0 min 0 W/m 22,5 km/h (4 Bft) 95,74 %
22.02.2018 00:14 -0,8 C -1,7 C -3,3 C 82 % 0 lf 1023,1 hPa 0,0 l/m 0 min 0 min 0 W/m 18,0 km/h (3 Bft) 95,65 %
22.02.2018 00:16 -0,8 C -1,7 C -3,3 C 82 % 0 lf 1023,1 hPa 0,0 l/m 0 min 0 min 0 W/m 22,5 km/h (4 Bft) 97,87 %
22.02.2018 00:18 -0,9 C -1,7 C -3,3 C 82 % 0 lf 1023,1 hPa 0,0 l/m 0 min 0 min 0 W/m 15,8 km/h (3 Bft) 97,87 %
22.02.2018 00:20 -0,9 C -1,7 C -3,3 C 82 % 0 lf 1023,0 hPa 0,0 l/m 0 min 0 min 0 W/m 20,3 km/h (4 Bft) 97,87 %
22.02.2018 00:22 -0,9 C -1,7 C -3,3 C 82 % 0 lf 1023,1 hPa 0,0 l/m 0 min 0 min 0 W/m 15,8 km/h (3 Bft) 97,87 %
22.02.2018 00:24 -0,9 C -1,7 C -3,3 C 82 % 0 lf 1023,1 hPa 0,0 l/m 0 min 0 min 0 W/m 20,3 km/h (4 Bft) 97,87 %
22.02.2018 00:26 -0,9 C -1,1 C -3,3 C 82 % 0 lf 1023,1 hPa 0,0 l/m 0 min 0 min 0 W/m 18,0 km/h (3 Bft) 95,65 %
22.02.2018 00:28 -0,9 C -1,1 C -3,3 C 83 % 0 lf 1023,1 hPa 0,0 l/m 0 min 0 min 0 W/m 15,8 km/h (3 Bft) 97,87 %
22.02.2018 00:30 -0,9 C -1,7 C -3,3 C 82 % 0 lf 1023,1 hPa 0,0 l/m 0 min 0 min 0 W/m 18,0 km/h (3 Bft) 97,87 %
22.02.2018 00:32 -0,9 C -1,1 C -3,3 C 82 % 0 lf 1023,1 hPa 0,0 l/m 0 min 0 min 0 W/m 20,3 km/h (4 Bft) 97,87 %
22.02.2018 00:34 -0,9 C -1,1 C -3,3 C 82 % 0 lf 1023,1 hPa 0,0 l/m 0 min 0 min 0 W/m 18,0 km/h (3 Bft) 93,62 %
22.02.2018 00:36 -1,0 C -1,1 C -3,3 C 83 % 0 lf 1023,1 hPa 0,0 l/m 0 min 0 min 0 W/m 24,8 km/h (4 Bft) 95,74 %
22.02.2018 00:38 -1,0 C -1,1 C -3,3 C 83 % 0 lf 1023,1 hPa 0,0 l/m 0 min 0 min 0 W/m 22,5 km/h (4 Bft) 95,65 %
22.02.2018 00:40 -1,0 C -1,1 C -3,3 C 83 % 0 lf 1023,1 hPa 0,0 l/m 0 min 0 min 0 W/m 20,3 km/h (4 Bft) 93,62 %
22.02.2018 00:42 -1,0 C -1,7 C -3,3 C 83 % 0 lf 1023,1 hPa 0,0 l/m 0 min 0 min 0 W/m 20,3 km/h (4 Bft) 95,74 %
22.02.2018 00:44 -1,0 C -1,7 C -3,3 C 83 % 0 lf 1023,1 hPa 0,0 l/m 0 min 0 min 0 W/m 18,0 km/h (3 Bft) 91,49 %
22.02.2018 00:46 -1,0 C -1,7 C -3,9 C 83 % 0 lf 1023,0 hPa 0,0 l/m 0 min 0 min 0 W/m 20,3 km/h (4 Bft) 95,74 %
22.02.2018 00:48 -1,1 C -1,7 C -3,9 C 83 % 0 lf 1023,0 hPa 0,0 l/m 0 min 0 min 0 W/m 15,8 km/h (3 Bft) 95,74 %
22.02.2018 00:50 -1,1 C -1,7 C -3,9 C 83 % 0 lf 1023,1 hPa 0,0 l/m 0 min 0 min 0 W/m 20,3 km/h (4 Bft) 100,00 %
22.02.2018 00:52 -1,1 C -1,7 C -3,9 C 83 % 0 lf 1023,1 hPa 0,0 l/m 0 min 0 min 0 W/m 22,5 km/h (4 Bft) 97,87 %
22.02.2018 00:54 -1,1 C -1,7 C -3,3 C 83 % 0 lf 1023,0 hPa 0,0 l/m 0 min 0 min 0 W/m 24,8 km/h (4 Bft) 97,87 %
22.02.2018 00:56 -1,1 C -1,7 C -3,3 C 83 % 0 lf 1023,1 hPa 0,0 l/m 0 min 0 min 0 W/m 22,5 km/h (4 Bft) 95,74 %
22.02.2018 00:58 -1,1 C -1,7 C -3,3 C 83 % 0 lf 1023,0 hPa 0,0 l/m 0 min 0 min 0 W/m 20,3 km/h (4 Bft) 95,74 %
22.02.2018 01:00 -1,1 C -1,7 C -3,3 C 83 % 0 lf 1023,0 hPa 0,0 l/m 0 min 0 min 0 W/m 27,0 km/h (4 Bft) 97,83 %
22.02.2018 01:02 -1,1 C -1,7 C -3,3 C 83 % 0 lf 1023,0 hPa 0,0 l/m 0 min 0 min 0 W/m 20,3 km/h (4 Bft) 95,74 %
22.02.2018 01:04 -1,1 C -1,7 C -3,3 C 83 % 0 lf 1023,0 hPa 0,0 l/m 0 min 0 min 0 W/m 24,8 km/h (4 Bft) 97,87 %
22.02.2018 01:06 -1,2 C -1,7 C -3,3 C 83 % 0 lf 1023,0 hPa 0,0 l/m 0 min 0 min 0 W/m 22,5 km/h (4 Bft) 97,22 %
22.02.2018 01:08 -1,2 C -1,7 C -3,3 C 83 % 0 lf 1023,0 hPa 0,0 l/m 0 min 0 min 0 W/m 20,3 km/h (4 Bft) 97,87 %
22.02.2018 01:10 -1,2 C -1,7 C -3,9 C 83 % 0 lf 1023,0 hPa 0,0 l/m 0 min 0 min 0 W/m 24,8 km/h (4 Bft) 95,74 %
22.02.2018 01:12 -1,2 C -1,7 C -3,9 C 83 % 0 lf 1023,0 hPa 0,0 l/m 0 min 0 min 0 W/m 27,0 km/h (4 Bft) 95,74 %
22.02.2018 01:14 -1,2 C -1,7 C -3,3 C 83 % 0 lf 1023,0 hPa 0,0 l/m 0 min 0 min 0 W/m 20,3 km/h (4 Bft) 93,62 %
22.02.2018 01:16 -1,2 C -1,7 C -3,3 C 83 % 0 lf 1022,9 hPa 0,0 l/m 0 min 0 min 0 W/m 24,8 km/h (4 Bft) 97,83 %
22.02.2018 01:18 -1,2 C -2,2 C -3,9 C 83 % 0 lf 1023,0 hPa 0,0 l/m 0 min 0 min 0 W/m 20,3 km/h (4 Bft) 97,87 %
22.02.2018 01:20 -1,3 C -2,2 C -3,9 C 83 % 0 lf 1022,9 hPa 0,0 l/m 0 min 0 min 0 W/m 20,3 km/h (4 Bft) 94,92 %
22.02.2018 01:22 -1,3 C -1,7 C -3,9 C 84 % 0 lf 1022,9 hPa 0,0 l/m 0 min 0 min 0 W/m 22,5 km/h (4 Bft) 94,29 %
22.02.2018 01:24 -1,3 C -1,7 C -3,3 C 84 % 0 lf 1022,9 hPa 0,0 l/m 0 min 0 min 0 W/m 24,8 km/h (4 Bft) 93,62 %
22.02.2018 01:26 -1,3 C -1,7 C -3,3 C 84 % 0 lf 1022,8 hPa 0,0 l/m 0 min 0 min 0 W/m 18,0 km/h (3 Bft) 97,87 %
22.02.2018 01:28 -1,3 C -1,7 C -3,3 C 84 % 0 lf 1022,8 hPa 0,0 l/m 0 min 0 min 0 W/m 20,3 km/h (4 Bft) 95,65 %
22.02.2018 01:30 -1,3 C -1,7 C -3,3 C 84 % 0 lf 1022,8 hPa 0,0 l/m 0 min 0 min 0 W/m 15,8 km/h (3 Bft) 97,87 %
22.02.2018 01:32 -1,3 C -1,7 C -3,3 C 84 % 0 lf 1022,8 hPa 0,0 l/m 0 min 0 min 0 W/m 20,3 km/h (4 Bft) 97,87 %
22.02.2018 01:34 -1,3 C -1,7 C -3,9 C 84 % 0 lf 1022,8 hPa 0,0 l/m 0 min 0 min 0 W/m 20,3 km/h (4 Bft) 97,87 %
22.02.2018 01:36 -1,3 C -1,7 C -3,9 C 84 % 0 lf 1022,8 hPa 0,0 l/m 0 min 0 min 0 W/m 18,0 km/h (3 Bft) 93,62 %
22.02.2018 01:38 -1,3 C -1,7 C -3,9 C 84 % 0 lf 1022,7 hPa 0,0 l/m 0 min 0 min 0 W/m 22,5 km/h (4 Bft) 95,74 %
22.02.2018 01:40 -1,3 C -1,7 C -3,9 C 84 % 0 lf 1022,8 hPa 0,0 l/m 0 min 0 min 0 W/m 20,3 km/h (4 Bft) 93,48 %
22.02.2018 01:42 -1,4 C -1,7 C -3,3 C 84 % 0 lf 1022,7 hPa 0,0 l/m 0 min 0 min 0 W/m 18,0 km/h (3 Bft) 97,87 %
22.02.2018 01:44 -1,4 C -2,2 C -3,9 C 84 % 0 lf 1022,8 hPa 0,0 l/m 0 min 0 min 0 W/m 20,3 km/h (4 Bft) 93,62 %
22.02.2018 01:46 -1,4 C -2,2 C -3,9 C 84 % 0 lf 1022,8 hPa 0,0 l/m 0 min 0 min 0 W/m 18,0 km/h (3 Bft) 97,87 %
22.02.2018 01:48 -1,4 C -1,7 C -3,9 C 84 % 0 lf 1022,9 hPa 0,0 l/m 0 min 0 min 0 W/m 18,0 km/h (3 Bft) 97,87 %
22.02.2018 01:50 -1,4 C -2,2 C -3,9 C 84 % 0 lf 1022,7 hPa 0,0 l/m 0 min 0 min 0 W/m 20,3 km/h (4 Bft) 94,83 %
22.02.2018 01:52 -1,4 C -1,7 C -3,9 C 84 % 0 lf 1022,8 hPa 0,0 l/m 0 min 0 min 0 W/m 22,5 km/h (4 Bft) 100,00 %
22.02.2018 01:54 -1,4 C -1,7 C -3,9 C 84 % 0 lf 1022,8 hPa 0,0 l/m 0 min 0 min 0 W/m 24,8 km/h (4 Bft) 97,87 %
22.02.2018 01:56 -1,4 C -1,7 C -3,9 C 84 % 0 lf 1022,7 hPa 0,0 l/m 0 min 0 min 0 W/m 20,3 km/h (4 Bft) 93,62 %
22.02.2018 01:58 -1,4 C -2,2 C -3,9 C 84 % 0 lf 1022,7 hPa 0,0 l/m 0 min 0 min 0 W/m 22,5 km/h (4 Bft) 100,00 %
22.02.2018 02:00 -1,4 C -2,2 C -3,9 C 84 % 0 lf 1022,8 hPa 0,0 l/m 0 min 0 min 0 W/m 22,5 km/h (4 Bft) 100,00 %
22.02.2018 02:02 -1,4 C -2,2 C -3,9 C 84 % 0 lf 1022,8 hPa 0,0 l/m 0 min 0 min 0 W/m 20,3 km/h (4 Bft) 100,00 %
22.02.2018 02:04 -1,4 C -2,2 C -3,3 C 84 % 0 lf 1022,8 hPa 0,0 l/m 0 min 0 min 0 W/m 24,8 km/h (4 Bft) 100,00 %
22.02.2018 02:06 -1,5 C -1,7 C -3,3 C 84 % 0 lf 1022,7 hPa 0,0 l/m 0 min 0 min 0 W/m 20,3 km/h (4 Bft) 97,87 %
22.02.2018 02:08 -1,5 C -2,2 C -3,9 C 84 % 0 lf 1022,8 hPa 0,0 l/m 0 min 0 min 0 W/m 15,8 km/h (3 Bft) 97,87 %
22.02.2018 02:10 -1,5 C -1,7 C -3,9 C 85 % 0 lf 1022,8 hPa 0,0 l/m 0 min 0 min 0 W/m 27,0 km/h (4 Bft) 100,00 %
22.02.2018 02:12 -1,5 C -1,7 C -3,3 C 85 % 0 lf 1022,8 hPa 0,0 l/m 0 min 0 min 0 W/m 20,3 km/h (4 Bft) 95,74 %
22.02.2018 02:14 -1,5 C -1,7 C -3,9 C 85 % 0 lf 1022,8 hPa 0,0 l/m 0 min 0 min 0 W/m 18,0 km/h (3 Bft) 97,83 %
22.02.2018 02:16 -1,5 C -1,7 C -3,9 C 85 % 0 lf 1022,8 hPa 0,0 l/m 0 min 0 min 0 W/m 18,0 km/h (3 Bft) 100,00 %
22.02.2018 02:18 -1,5 C -2,2 C -3,9 C 85 % 0 lf 1022,8 hPa 0,0 l/m 0 min 0 min 0 W/m 15,8 km/h (3 Bft) 100,00 %
22.02.2018 02:20 -1,5 C -2,2 C -3,9 C 84 % 0 lf 1022,8 hPa 0,0 l/m 0 min 0 min 0 W/m 24,8 km/h (4 Bft) 96,61 %
22.02.2018 02:22 -1,6 C -2,2 C -3,9 C 84 % 0 lf 1022,8 hPa 0,0 l/m 0 min 0 min 0 W/m 18,0 km/h (3 Bft) 100,00 %
22.02.2018 02:24 -1,6 C -2,2 C -3,9 C 84 % 0 lf 1022,8 hPa 0,0 l/m 0 min 0 min 0 W/m 22,5 km/h (4 Bft) 97,87 %
22.02.2018 02:26 -1,6 C -2,2 C -3,9 C 85 % 0 lf 1022,8 hPa 0,0 l/m 0 min 0 min 0 W/m 31,5 km/h (5 Bft) 100,00 %
22.02.2018 02:28 -1,6 C -2,2 C -3,9 C 85 % 0 lf 1022,7 hPa 0,0 l/m 0 min 0 min 0 W/m 29,3 km/h (5 Bft) 100,00 %
22.02.2018 02:30 -1,6 C -2,2 C -3,9 C 85 % 0 lf 1022,7 hPa 0,0 l/m 0 min 0 min 0 W/m 18,0 km/h (3 Bft) 95,74 %
22.02.2018 02:32 -1,6 C -1,7 C -3,9 C 85 % 0 lf 1022,7 hPa 0,0 l/m 0 min 0 min 0 W/m 18,0 km/h (3 Bft) 100,00 %
22.02.2018 02:34 -1,6 C -1,7 C -3,9 C 85 % 0 lf 1022,8 hPa 0,0 l/m 0 min 0 min 0 W/m 24,8 km/h (4 Bft) 100,00 %
22.02.2018 02:36 -1,6 C -2,2 C -3,9 C 85 % 0 lf 1022,8 hPa 0,0 l/m 0 min 0 min 0 W/m 24,8 km/h (4 Bft) 95,74 %
22.02.2018 02:38 -1,6 C -2,2 C -3,9 C 85 % 0 lf 1022,7 hPa 0,0 l/m 0 min 0 min 0 W/m 11,3 km/h (2 Bft) 95,65 %
22.02.2018 02:40 -1,6 C -2,2 C -3,9 C 85 % 0 lf 1022,8 hPa 0,0 l/m 0 min 0 min 0 W/m 18,0 km/h (3 Bft) 95,74 %
22.02.2018 02:42 -1,6 C -2,2 C -3,9 C 85 % 0 lf 1022,7 hPa 0,0 l/m 0 min 0 min 0 W/m 22,5 km/h (4 Bft) 95,74 %
22.02.2018 02:44 -1,6 C -2,2 C -3,9 C 85 % 0 lf 1022,7 hPa 0,0 l/m 0 min 0 min 0 W/m 13,5 km/h (3 Bft) 97,87 %
22.02.2018 02:46 -1,6 C -2,2 C -3,9 C 85 % 0 lf 1022,7 hPa 0,0 l/m 0 min 0 min 0 W/m 20,3 km/h (4 Bft) 95,74 %
22.02.2018 02:48 -1,6 C -2,2 C -3,9 C 85 % 0 lf 1022,7 hPa 0,0 l/m 0 min 0 min 0 W/m 18,0 km/h (3 Bft) 97,83 %
22.02.2018 02:50 -1,6 C -2,2 C -3,9 C 85 % 0 lf 1022,7 hPa 0,0 l/m 0 min 0 min 0 W/m 18,0 km/h (3 Bft) 96,61 %
22.02.2018 02:52 -1,6 C -2,2 C -3,9 C 85 % 0 lf 1022,7 hPa 0,0 l/m 0 min 0 min 0 W/m 20,3 km/h (4 Bft) 100,00 %
22.02.2018 02:54 -1,6 C -2,2 C -3,9 C 85 % 0 lf 1022,7 hPa 0,0 l/m 0 min 0 min 0 W/m 20,3 km/h (4 Bft) 97,87 %
22.02.2018 02:56 -1,6 C -2,2 C -3,9 C 85 % 0 lf 1022,7 hPa 0,0 l/m 0 min 0 min 0 W/m 15,8 km/h (3 Bft) 95,74 %
22.02.2018 02:58 -1,6 C -2,2 C -3,9 C 85 % 0 lf 1022,7 hPa 0,0 l/m 0 min 0 min 0 W/m 18,0 km/h (3 Bft) 97,87 %
22.02.2018 03:00 -1,6 C -2,2 C -3,9 C 85 % 0 lf 1022,7 hPa 0,0 l/m 0 min 0 min 0 W/m 20,3 km/h (4 Bft) 97,83 %
22.02.2018 03:02 -1,6 C -2,2 C -3,9 C 85 % 0 lf 1022,7 hPa 0,0 l/m 0 min 0 min 0 W/m 13,5 km/h (3 Bft) 95,74 %
22.02.2018 03:04 -1,7 C -2,2 C -3,9 C 85 % 0 lf 1022,7 hPa 0,0 l/m 0 min 0 min 0 W/m 15,8 km/h (3 Bft) 95,74 %
22.02.2018 03:06 -1,7 C -2,2 C -3,9 C 85 % 0 lf 1022,6 hPa 0,0 l/m 0 min 0 min 0 W/m 15,8 km/h (3 Bft) 95,74 %
22.02.2018 03:08 -1,6 C -2,2 C -3,9 C 85 % 0 lf 1022,7 hPa 0,0 l/m 0 min 0 min 0 W/m 20,3 km/h (4 Bft) 97,87 %
22.02.2018 03:10 -1,7 C -2,2 C -3,9 C 85 % 0 lf 1022,6 hPa 0,0 l/m 0 min 0 min 0 W/m 20,3 km/h (4 Bft) 95,74 %
22.02.2018 03:12 -1,7 C -2,2 C -3,9 C 85 % 0 lf 1022,6 hPa 0,0 l/m 0 min 0 min 0 W/m 20,3 km/h (4 Bft) 95,65 %
22.02.2018 03:14 -1,7 C -2,2 C -3,9 C 85 % 0 lf 1022,5 hPa 0,0 l/m 0 min 0 min 0 W/m 15,8 km/h (3 Bft) 95,74 %
22.02.2018 03:16 -1,7 C -2,2 C -3,9 C 85 % 0 lf 1022,5 hPa 0,0 l/m 0 min 0 min 0 W/m 22,5 km/h (4 Bft) 95,74 %
22.02.2018 03:18 -1,7 C -2,2 C -3,9 C 85 % 0 lf 1022,5 hPa 0,0 l/m 0 min 0 min 0 W/m 20,3 km/h (4 Bft) 93,62 %
22.02.2018 03:20 -1,7 C -2,2 C -3,9 C 85 % 0 lf 1022,5 hPa 0,0 l/m 0 min 0 min 0 W/m 18,0 km/h (3 Bft) 91,38 %
22.02.2018 03:22 -1,7 C -2,2 C -3,9 C 85 % 0 lf 1022,6 hPa 0,0 l/m 0 min 0 min 0 W/m 22,5 km/h (4 Bft) 97,22 %
22.02.2018 03:24 -1,7 C -2,2 C -3,9 C 85 % 0 lf 1022,6 hPa 0,0 l/m 0 min 0 min 0 W/m 15,8 km/h (3 Bft) 95,65 %
22.02.2018 03:26 -1,7 C -2,2 C -3,9 C 85 % 0 lf 1022,5 hPa 0,0 l/m 0 min 0 min 0 W/m 20,3 km/h (4 Bft) 95,74 %
22.02.2018 03:28 -1,7 C -2,2 C -3,9 C 85 % 0 lf 1022,5 hPa 0,0 l/m 0 min 0 min 0 W/m 13,5 km/h (3 Bft) 95,74 %
22.02.2018 03:30 -1,7 C -2,2 C -3,9 C 85 % 0 lf 1022,5 hPa 0,0 l/m 0 min 0 min 0 W/m 15,8 km/h (3 Bft) 95,74 %
22.02.2018 03:32 -1,7 C -2,2 C -3,9 C 85 % 0 lf 1022,6 hPa 0,0 l/m 0 min 0 min 0 W/m 20,3 km/h (4 Bft) 95,74 %
22.02.2018 03:34 -1,7 C -2,2 C -3,9 C 85 % 0 lf 1022,5 hPa 0,0 l/m 0 min 0 min 0 W/m 15,8 km/h (3 Bft) 93,62 %
22.02.2018 03:36 -1,7 C -2,2 C -3,9 C 85 % 0 lf 1022,5 hPa 0,0 l/m 0 min 0 min 0 W/m 22,5 km/h (4 Bft) 93,48 %
22.02.2018 03:38 -1,7 C -2,2 C -3,9 C 85 % 0 lf 1022,5 hPa 0,0 l/m 0 min 0 min 0 W/m 18,0 km/h (3 Bft) 89,36 %
22.02.2018 03:40 -1,7 C -2,2 C -3,9 C 85 % 0 lf 1022,5 hPa 0,0 l/m 0 min 0 min 0 W/m 18,0 km/h (3 Bft) 91,49 %
22.02.2018 03:42 -1,8 C -2,2 C -3,9 C 85 % 0 lf 1022,4 hPa 0,0 l/m 0 min 0 min 0 W/m 20,3 km/h (4 Bft) 93,62 %
22.02.2018 03:44 -1,8 C -2,2 C -3,9 C 85 % 0 lf 1022,4 hPa 0,0 l/m 0 min 0 min 0 W/m 29,3 km/h (5 Bft) 91,49 %
22.02.2018 03:46 -1,8 C -2,2 C -3,9 C 85 % 0 lf 1022,4 hPa 0,0 l/m 0 min 0 min 0 W/m 24,8 km/h (4 Bft) 91,30 %
22.02.2018 03:48 -1,8 C -2,2 C -3,9 C 85 % 0 lf 1022,4 hPa 0,0 l/m 0 min 0 min 0 W/m 24,8 km/h (4 Bft) 89,36 %
22.02.2018 03:50 -1,8 C -2,2 C -3,9 C 85 % 0 lf 1022,4 hPa 0,0 l/m 0 min 0 min 0 W/m 18,0 km/h (3 Bft) 94,92 %
22.02.2018 03:52 -1,8 C -2,2 C -3,9 C 85 % 0 lf 1022,4 hPa 0,0 l/m 0 min 0 min 0 W/m 22,5 km/h (4 Bft) 97,14 %
22.02.2018 03:54 -1,8 C -2,2 C -3,9 C 85 % 0 lf 1022,4 hPa 0,0 l/m 0 min 0 min 0 W/m 20,3 km/h (4 Bft) 95,74 %
22.02.2018 03:56 -1,8 C -2,2 C -3,9 C 85 % 0 lf 1022,4 hPa 0,0 l/m 0 min 0 min 0 W/m 22,5 km/h (4 Bft) 91,49 %
22.02.2018 03:58 -1,8 C -2,2 C -3,9 C 85 % 0 lf 1022,4 hPa 0,0 l/m 0 min 0 min 0 W/m 18,0 km/h (3 Bft) 95,65 %
22.02.2018 04:00 -1,8 C -2,2 C -3,9 C 85 % 0 lf 1022,3 hPa 0,0 l/m 0 min 0 min 0 W/m 20,3 km/h (4 Bft) 95,74 %
22.02.2018 04:05 -1,8 C -2,2 C -3,9 C 85 % 0 lf 1022,2 hPa 0,0 l/m 0 min 0 min 0 W/m 22,5 km/h (4 Bft) 95,00 %
22.02.2018 04:06 -1,8 C -2,2 C -3,9 C 85 % 0 lf 1022,2 hPa 0,0 l/m 0 min 0 min 0 W/m 20,3 km/h (4 Bft) 91,67 %
22.02.2018 04:08 -1,8 C -2,2 C -3,9 C 85 % 0 lf 1022,3 hPa 0,0 l/m 0 min 0 min 0 W/m 29,3 km/h (5 Bft) 93,62 %
22.02.2018 04:10 -1,8 C -2,2 C -3,9 C 85 % 0 lf 1022,3 hPa 0,0 l/m 0 min 0 min 0 W/m 24,8 km/h (4 Bft) 95,65 %
22.02.2018 04:12 -1,8 C -2,2 C -3,9 C 85 % 0 lf 1022,2 hPa 0,0 l/m 0 min 0 min 0 W/m 20,3 km/h (4 Bft) 93,62 %
22.02.2018 04:14 -1,8 C -2,2 C -3,9 C 85 % 0 lf 1022,3 hPa 0,0 l/m 0 min 0 min 0 W/m 27,0 km/h (4 Bft) 93,62 %
22.02.2018 04:16 -1,8 C -2,2 C -3,9 C 85 % 0 lf 1022,3 hPa 0,0 l/m 0 min 0 min 0 W/m 29,3 km/h (5 Bft) 95,74 %
22.02.2018 04:18 -1,8 C -2,2 C -3,9 C 85 % 0 lf 1022,3 hPa 0,0 l/m 0 min 0 min 0 W/m 24,8 km/h (4 Bft) 95,74 %
22.02.2018 04:20 -1,8 C -2,2 C -3,9 C 85 % 0 lf 1022,3 hPa 0,0 l/m 0 min 0 min 0 W/m 15,8 km/h (3 Bft) 96,55 %
22.02.2018 04:22 -1,8 C -2,2 C -3,9 C 85 % 0 lf 1022,2 hPa 0,0 l/m 0 min 0 min 0 W/m 24,8 km/h (4 Bft) 97,14 %
22.02.2018 04:24 -1,8 C -2,2 C -3,9 C 85 % 0 lf 1022,2 hPa 0,0 l/m 0 min 0 min 0 W/m 18,0 km/h (3 Bft) 97,87 %
22.02.2018 04:26 -1,8 C -2,2 C -3,9 C 84 % 0 lf 1022,2 hPa 0,0 l/m 0 min 0 min 0 W/m 24,8 km/h (4 Bft) 97,87 %
22.02.2018 04:28 -1,8 C -2,2 C -3,9 C 85 % 0 lf 1022,2 hPa 0,0 l/m 0 min 0 min 0 W/m 29,3 km/h (5 Bft) 97,87 %
22.02.2018 04:30 -1,8 C -2,2 C -3,9 C 85 % 0 lf 1022,2 hPa 0,0 l/m 0 min 0 min 0 W/m 29,3 km/h (5 Bft) 100,00 %
22.02.2018 04:32 -1,8 C -2,2 C -3,9 C 85 % 0 lf 1022,2 hPa 0,0 l/m 0 min 0 min 0 W/m 15,8 km/h (3 Bft) 97,87 %
22.02.2018 04:34 -1,8 C -2,2 C -3,9 C 85 % 0 lf 1022,3 hPa 0,0 l/m 0 min 0 min 0 W/m 29,3 km/h (5 Bft) 100,00 %
22.02.2018 04:36 -1,8 C -2,2 C -3,9 C 85 % 0 lf 1022,3 hPa 0,0 l/m 0 min 0 min 0 W/m 29,3 km/h (5 Bft) 100,00 %
22.02.2018 04:38 -1,8 C -2,2 C -3,9 C 85 % 0 lf 1022,2 hPa 0,0 l/m 0 min 0 min 0 W/m 20,3 km/h (4 Bft) 97,87 %
22.02.2018 04:40 -1,8 C -2,2 C -3,9 C 84 % 0 lf 1022,3 hPa 0,0 l/m 0 min 0 min 0 W/m 38,3 km/h (5 Bft) 100,00 %
22.02.2018 04:42 -1,8 C -2,2 C -3,9 C 85 % 0 lf 1022,2 hPa 0,0 l/m 0 min 0 min 0 W/m 29,3 km/h (5 Bft) 100,00 %
22.02.2018 04:44 -1,8 C -2,2 C -3,9 C 84 % 0 lf 1022,2 hPa 0,0 l/m 0 min 0 min 0 W/m 22,5 km/h (4 Bft) 97,87 %
22.02.2018 04:46 -1,8 C -2,2 C -3,9 C 84 % 0 lf 1022,1 hPa 0,0 l/m 0 min 0 min 0 W/m 20,3 km/h (4 Bft) 97,83 %
22.02.2018 04:48 -1,8 C -2,2 C -3,9 C 84 % 0 lf 1022,2 hPa 0,0 l/m 0 min 0 min 0 W/m 13,5 km/h (3 Bft) 97,87 %
22.02.2018 04:50 -1,8 C -2,2 C -3,9 C 84 % 0 lf 1022,2 hPa 0,0 l/m 0 min 0 min 0 W/m 18,0 km/h (3 Bft) 100,00 %
22.02.2018 04:52 -1,8 C -2,2 C -3,9 C 84 % 0 lf 1022,2 hPa 0,0 l/m 0 min 0 min 0 W/m 20,3 km/h (4 Bft) 97,14 %
22.02.2018 04:54 -1,8 C -2,2 C -3,9 C 84 % 0 lf 1022,2 hPa 0,0 l/m 0 min 0 min 0 W/m 29,3 km/h (5 Bft) 97,87 %
22.02.2018 04:56 -1,8 C -2,2 C -3,9 C 84 % 0 lf 1022,2 hPa 0,0 l/m 0 min 0 min 0 W/m 20,3 km/h (4 Bft) 100,00 %
22.02.2018 04:58 -1,8 C -2,2 C -3,9 C 84 % 0 lf 1022,2 hPa 0,0 l/m 0 min 0 min 0 W/m 24,8 km/h (4 Bft) 97,83 %
22.02.2018 05:00 -1,9 C -2,2 C -3,9 C 84 % 0 lf 1022,2 hPa 0,0 l/m 0 min 0 min 0 W/m 24,8 km/h (4 Bft) 97,87 %
22.02.2018 05:02 -1,9 C -2,2 C -3,9 C 84 % 0 lf 1022,3 hPa 0,0 l/m 0 min 0 min 0 W/m 20,3 km/h (4 Bft) 95,74 %
22.02.2018 05:04 -1,9 C -2,2 C -3,9 C 85 % 0 lf 1022,3 hPa 0,0 l/m 0 min 0 min 0 W/m 22,5 km/h (4 Bft) 95,74 %
22.02.2018 05:06 -1,9 C -2,2 C -3,9 C 85 % 0 lf 1022,2 hPa 0,0 l/m 0 min 0 min 0 W/m 24,8 km/h (4 Bft) 97,87 %
22.02.2018 05:08 -1,9 C -2,2 C -3,9 C 85 % 0 lf 1022,3 hPa 0,0 l/m 0 min 0 min 0 W/m 20,3 km/h (4 Bft) 97,83 %
22.02.2018 05:10 -1,9 C -2,2 C -3,9 C 85 % 0 lf 1022,3 hPa 0,0 l/m 0 min 0 min 0 W/m 20,3 km/h (4 Bft) 91,49 %
22.02.2018 05:12 -1,9 C -2,2 C -4,4 C 85 % 0 lf 1022,2 hPa 0,0 l/m 0 min 0 min 0 W/m 20,3 km/h (4 Bft) 93,62 %
22.02.2018 05:14 -1,9 C -2,2 C -4,4 C 85 % 0 lf 1022,3 hPa 0,0 l/m 0 min 0 min 0 W/m 22,5 km/h (4 Bft) 95,74 %
22.02.2018 05:16 -1,9 C -2,2 C -4,4 C 85 % 0 lf 1022,3 hPa 0,0 l/m 0 min 0 min 0 W/m 27,0 km/h (4 Bft) 95,74 %
22.02.2018 05:18 -1,9 C -2,2 C -3,9 C 85 % 0 lf 1022,2 hPa 0,0 l/m 0 min 0 min 0 W/m 18,0 km/h (3 Bft) 93,62 %
22.02.2018 05:20 -2,0 C -2,2 C -3,9 C 85 % 0 lf 1022,3 hPa 0,0 l/m 0 min 0 min 0 W/m 24,8 km/h (4 Bft) 96,55 %
22.02.2018 05:22 -2,0 C -2,2 C -3,9 C 85 % 0 lf 1022,2 hPa 0,0 l/m 0 min 0 min 0 W/m 22,5 km/h (4 Bft) 91,43 %
22.02.2018 05:24 -2,0 C -2,2 C -3,9 C 85 % 0 lf 1022,3 hPa 0,0 l/m 0 min 0 min 0 W/m 20,3 km/h (4 Bft) 91,49 %
22.02.2018 05:26 -2,0 C -2,2 C -4,4 C 85 % 0 lf 1022,3 hPa 0,0 l/m 0 min 0 min 0 W/m 22,5 km/h (4 Bft) 93,62 %
22.02.2018 05:28 -2,0 C -2,2 C -4,4 C 85 % 0 lf 1022,3 hPa 0,0 l/m 0 min 0 min 0 W/m 24,8 km/h (4 Bft) 95,74 %
22.02.2018 05:30 -2,0 C -2,2 C -3,9 C 85 % 0 lf 1022,4 hPa 0,0 l/m 0 min 0 min 0 W/m 22,5 km/h (4 Bft) 95,74 %
22.02.2018 05:32 -2,0 C -2,2 C -3,9 C 85 % 0 lf 1022,4 hPa 0,0 l/m 0 min 0 min 0 W/m 18,0 km/h (3 Bft) 95,65 %
22.02.2018 05:34 -2,1 C -2,8 C -4,4 C 85 % 0 lf 1022,4 hPa 0,0 l/m 0 min 0 min 0 W/m 20,3 km/h (4 Bft) 95,74 %
22.02.2018 05:35 -2,1 C -2,8 C -4,4 C 85 % 0 lf 1022,5 hPa 0,0 l/m 0 min 0 min 0 W/m 20,3 km/h (4 Bft) 98,25 %
22.02.2018 05:40 -2,1 C -2,8 C -4,4 C 85 % 0 lf 1022,4 hPa 0,0 l/m 0 min 0 min 0 W/m 18,0 km/h (3 Bft) 100,00 %
22.02.2018 05:42 -2,1 C -2,8 C -4,4 C 85 % 0 lf 1022,4 hPa 0,0 l/m 0 min 0 min 0 W/m 20,3 km/h (4 Bft) 95,74 %
22.02.2018 05:44 -2,1 C -2,8 C -4,4 C 85 % 0 lf 1022,4 hPa 0,0 l/m 0 min 0 min 0 W/m 18,0 km/h (3 Bft) 93,48 %
22.02.2018 05:46 -2,1 C -2,8 C -4,4 C 85 % 0 lf 1022,4 hPa 0,0 l/m 0 min 0 min 0 W/m 20,3 km/h (4 Bft) 100,00 %
22.02.2018 05:48 -2,1 C -2,8 C -4,4 C 85 % 0 lf 1022,4 hPa 0,0 l/m 0 min 0 min 0 W/m 15,8 km/h (3 Bft) 97,87 %
22.02.2018 05:50 -2,2 C -2,8 C -4,4 C 85 % 0 lf 1022,4 hPa 0,0 l/m 0 min 0 min 0 W/m 22,5 km/h (4 Bft) 96,61 %
22.02.2018 05:52 -2,2 C -2,8 C -4,4 C 85 % 0 lf 1022,4 hPa 0,0 l/m 0 min 0 min 0 W/m 15,8 km/h (3 Bft) 100,00 %
22.02.2018 05:54 -2,2 C -2,8 C -4,4 C 85 % 0 lf 1022,4 hPa 0,0 l/m 0 min 0 min 0 W/m 22,5 km/h (4 Bft) 91,49 %
22.02.2018 05:56 -2,2 C -2,8 C -4,4 C 85 % 0 lf 1022,4 hPa 0,0 l/m 0 min 0 min 0 W/m 20,3 km/h (4 Bft) 100,00 %
22.02.2018 05:58 -2,2 C -2,8 C -4,4 C 85 % 0 lf 1022,4 hPa 0,0 l/m 0 min 0 min 0 W/m 24,8 km/h (4 Bft) 100,00 %
22.02.2018 06:00 -2,2 C -2,8 C -4,4 C 85 % 0 lf 1022,3 hPa 0,0 l/m 0 min 0 min 0 W/m 15,8 km/h (3 Bft) 97,87 %
22.02.2018 06:02 -2,2 C -2,8 C -4,4 C 85 % 0 lf 1022,3 hPa 0,0 l/m 0 min 0 min 0 W/m 18,0 km/h (3 Bft) 97,87 %
22.02.2018 06:04 -2,2 C -2,8 C -4,4 C 85 % 0 lf 1022,4 hPa 0,0 l/m 0 min 0 min 0 W/m 20,3 km/h (4 Bft) 97,87 %
22.02.2018 06:08 -2,3 C -2,8 C -4,4 C 85 % 0 lf 1022,4 hPa 0,0 l/m 0 min 0 min 0 W/m 22,5 km/h (4 Bft) 98,92 %
22.02.2018 06:10 -2,2 C -2,8 C -4,4 C 85 % 0 lf 1022,5 hPa 0,0 l/m 0 min 0 min 0 W/m 24,8 km/h (4 Bft) 100,00 %
22.02.2018 06:12 -2,3 C -2,8 C -4,4 C 85 % 0 lf 1022,5 hPa 0,0 l/m 0 min 0 min 0 W/m 18,0 km/h (3 Bft) 100,00 %
22.02.2018 06:14 -2,3 C -2,8 C -4,4 C 85 % 0 lf 1022,5 hPa 0,0 l/m 0 min 0 min 0 W/m 20,3 km/h (4 Bft) 100,00 %
22.02.2018 06:16 -2,3 C -2,8 C -4,4 C 86 % 0 lf 1022,6 hPa 0,0 l/m 0 min 0 min 0 W/m 20,3 km/h (4 Bft) 100,00 %
22.02.2018 06:18 -2,3 C -2,8 C -4,4 C 86 % 0 lf 1022,5 hPa 0,0 l/m 0 min 0 min 0 W/m 27,0 km/h (4 Bft) 97,87 %
22.02.2018 06:20 -2,3 C -2,8 C -4,4 C 86 % 0 lf 1022,5 hPa 0,0 l/m 0 min 0 min 0 W/m 18,0 km/h (3 Bft) 98,28 %
22.02.2018 06:22 -2,3 C -2,8 C -4,4 C 86 % 0 lf 1022,5 hPa 0,0 l/m 0 min 0 min 0 W/m 18,0 km/h (3 Bft) 100,00 %
22.02.2018 06:24 -2,3 C -2,8 C -4,4 C 86 % 0 lf 1022,5 hPa 0,0 l/m 0 min 0 min 0 W/m 22,5 km/h (4 Bft) 100,00 %
22.02.2018 06:26 -2,3 C -2,8 C -4,4 C 86 % 0 lf 1022,5 hPa 0,0 l/m 0 min 0 min 0 W/m 20,3 km/h (4 Bft) 100,00 %
22.02.2018 06:28 -2,3 C -2,8 C -4,4 C 86 % 0 lf 1022,6 hPa 0,0 l/m 0 min 0 min 0 W/m 22,5 km/h (4 Bft) 100,00 %
22.02.2018 06:30 -2,3 C -2,8 C -4,4 C 86 % 0 lf 1022,6 hPa 0,0 l/m 0 min 0 min 0 W/m 18,0 km/h (3 Bft) 100,00 %
22.02.2018 06:32 -2,3 C -3,3 C -4,4 C 86 % 0 lf 1022,6 hPa 0,0 l/m 0 min 0 min 0 W/m 15,8 km/h (3 Bft) 100,00 %
22.02.2018 06:34 -2,3 C -3,3 C -4,4 C 86 % 0 lf 1022,6 hPa 0,0 l/m 0 min 0 min 0 W/m 20,3 km/h (4 Bft) 100,00 %
22.02.2018 06:36 -2,3 C -2,8 C -4,4 C 86 % 0 lf 1022,7 hPa 0,0 l/m 0 min 0 min 0 W/m 20,3 km/h (4 Bft) 97,87 %
22.02.2018 06:38 -2,3 C -3,3 C -4,4 C 86 % 0 lf 1022,7 hPa 0,0 l/m 0 min 0 min 0 W/m 20,3 km/h (4 Bft) 91,49 %
22.02.2018 06:40 -2,3 C -3,3 C -4,4 C 86 % 0 lf 1022,7 hPa 0,0 l/m 0 min 0 min 0 W/m 13,5 km/h (3 Bft) 95,74 %
22.02.2018 06:42 -2,3 C -2,8 C -4,4 C 86 % 0 lf 1022,7 hPa 0,0 l/m 0 min 0 min 0 W/m 15,8 km/h (3 Bft) 95,65 %
22.02.2018 06:44 -2,3 C -3,3 C -5,0 C 86 % 0 lf 1022,7 hPa 0,0 l/m 0 min 0 min 0 W/m 13,5 km/h (3 Bft) 97,87 %
22.02.2018 06:46 -2,4 C -3,3 C -5,0 C 86 % 0 lf 1022,7 hPa 0,0 l/m 0 min 0 min 0 W/m 11,3 km/h (2 Bft) 97,87 %
22.02.2018 06:48 -2,4 C -3,3 C -5,0 C 86 % 0 lf 1022,7 hPa 0,0 l/m 0 min 0 min 0 W/m 15,8 km/h (3 Bft) 97,87 %
22.02.2018 06:50 -2,4 C -2,8 C -5,0 C 86 % 0 lf 1022,7 hPa 0,0 l/m 0 min 0 min 0 W/m 9,0 km/h (2 Bft) 94,83 %
22.02.2018 06:52 -2,4 C -2,8 C -5,0 C 86 % 0 lf 1022,8 hPa 0,0 l/m 0 min 0 min 0 W/m 18,0 km/h (3 Bft) 97,22 %
22.02.2018 06:54 -2,4 C -2,8 C -5,0 C 86 % 0 lf 1022,8 hPa 0,0 l/m 0 min 0 min 0 W/m 11,3 km/h (2 Bft) 97,83 %
22.02.2018 06:56 -2,4 C -2,8 C -5,0 C 86 % 0 lf 1022,8 hPa 0,0 l/m 0 min 0 min 0 W/m 15,8 km/h (3 Bft) 95,74 %
22.02.2018 06:58 -2,4 C -2,8 C -5,0 C 86 % 0 lf 1022,8 hPa 0,0 l/m 0 min 0 min 0 W/m 11,3 km/h (2 Bft) 95,74 %
22.02.2018 07:00 -2,5 C -2,8 C -5,0 C 86 % 0 lf 1022,8 hPa 0,0 l/m 0 min 0 min 0 W/m 9,0 km/h (2 Bft) 97,87 %
22.02.2018 07:02 -2,5 C -2,8 C -5,0 C 86 % 0 lf 1022,8 hPa 0,0 l/m 0 min 0 min 0 W/m 15,8 km/h (3 Bft) 93,62 %
22.02.2018 07:04 -2,5 C -3,3 C -5,6 C 86 % 0 lf 1022,7 hPa 0,0 l/m 0 min 0 min 0 W/m 13,5 km/h (3 Bft) 95,74 %
22.02.2018 07:08 -2,5 C -3,3 C -5,0 C 86 % 0 lf 1022,8 hPa 0,0 l/m 0 min 0 min 0 W/m 18,0 km/h (3 Bft) 93,55 %
22.02.2018 07:10 -2,6 C -3,3 C -5,0 C 86 % 0 lf 1022,8 hPa 0,0 l/m 0 min 0 min 0 W/m 15,8 km/h (3 Bft) 93,62 %
22.02.2018 07:12 -2,6 C -3,3 C -5,6 C 86 % 0 lf 1022,8 hPa 0,0 l/m 0 min 0 min 0 W/m 15,8 km/h (3 Bft) 93,62 %
22.02.2018 07:14 -2,6 C -3,3 C -5,0 C 86 % 0 lf 1022,8 hPa 0,0 l/m 0 min 0 min 0 W/m 18,0 km/h (3 Bft) 95,74 %
22.02.2018 07:16 -2,6 C -3,3 C -5,0 C 86 % 0 lf 1022,8 hPa 0,0 l/m 0 min 0 min 0 W/m 13,5 km/h (3 Bft) 93,62 %
22.02.2018 07:18 -2,6 C -3,3 C -5,0 C 86 % 0 lf 1022,8 hPa 0,0 l/m 0 min 0 min 0 W/m 18,0 km/h (3 Bft) 93,48 %
22.02.2018 07:20 -2,6 C -3,3 C -5,0 C 86 % 0 lf 1022,8 hPa 0,0 l/m 0 min 0 min 0 W/m 18,0 km/h (3 Bft) 93,22 %
22.02.2018 07:22 -2,6 C -3,3 C -5,0 C 86 % 0 lf 1022,8 hPa 0,0 l/m 0 min 0 min 0 W/m 20,3 km/h (4 Bft) 97,14 %
22.02.2018 07:24 -2,6 C -3,3 C -5,0 C 86 % 0 lf 1022,8 hPa 0,0 l/m 0 min 0 min 0 W/m 15,8 km/h (3 Bft) 95,74 %
22.02.2018 07:26 -2,6 C -3,3 C -5,0 C 86 % 0 lf 1022,8 hPa 0,0 l/m 0 min 0 min 0 W/m 15,8 km/h (3 Bft) 89,36 %
22.02.2018 07:28 -2,7 C -3,3 C -5,0 C 87 % 0 lf 1022,8 hPa 0,0 l/m 0 min 0 min 3 W/m 11,3 km/h (2 Bft) 89,13 %
22.02.2018 07:30 -2,7 C -3,3 C -5,0 C 86 % 0 lf 1022,8 hPa 0,0 l/m 0 min 0 min 5 W/m 18,0 km/h (3 Bft) 93,62 %
22.02.2018 07:32 -2,7 C -3,3 C -5,0 C 86 % 0 lf 1022,8 hPa 0,0 l/m 0 min 0 min 5 W/m 15,8 km/h (3 Bft) 93,62 %
22.02.2018 07:34 -2,7 C -3,3 C -5,0 C 87 % 0 lf 1022,8 hPa 0,0 l/m 0 min 0 min 6 W/m 20,3 km/h (4 Bft) 91,49 %
22.02.2018 07:36 -2,7 C -2,8 C -5,0 C 87 % 0 lf 1022,9 hPa 0,0 l/m 0 min 0 min 7 W/m 15,8 km/h (3 Bft) 95,74 %
22.02.2018 07:38 -2,7 C -3,3 C -5,0 C 87 % 0 lf 1022,9 hPa 0,0 l/m 0 min 0 min 7 W/m 11,3 km/h (2 Bft) 95,74 %
22.02.2018 07:40 -2,7 C -3,3 C -5,0 C 87 % 0 lf 1022,9 hPa 0,0 l/m 0 min 0 min 9 W/m 15,8 km/h (3 Bft) 95,65 %
22.02.2018 07:42 -2,7 C -3,3 C -5,0 C 87 % 0 lf 1022,8 hPa 0,0 l/m 0 min 0 min 9 W/m 15,8 km/h (3 Bft) 93,62 %
22.02.2018 07:44 -2,7 C -2,8 C -5,0 C 87 % 0 lf 1022,9 hPa 0,0 l/m 0 min 0 min 9 W/m 18,0 km/h (3 Bft) 95,74 %
22.02.2018 07:46 -2,7 C -2,8 C -5,0 C 87 % 0 lf 1022,9 hPa 0,0 l/m 0 min 0 min 11 W/m 20,3 km/h (4 Bft) 95,74 %
22.02.2018 07:48 -2,7 C -2,8 C -5,0 C 87 % 0 lf 1022,9 hPa 0,0 l/m 0 min 0 min 12 W/m 20,3 km/h (4 Bft) 95,74 %
22.02.2018 07:50 -2,7 C -2,8 C -4,4 C 87 % 0 lf 1022,9 hPa 0,0 l/m 0 min 0 min 14 W/m 22,5 km/h (4 Bft) 95,74 %
22.02.2018 07:52 -2,7 C -2,8 C -4,4 C 87 % 0 lf 1022,9 hPa 0,0 l/m 0 min 0 min 15 W/m 18,0 km/h (3 Bft) 95,65 %
22.02.2018 07:54 -2,7 C -2,8 C -4,4 C 87 % 0 lf 1022,9 hPa 0,0 l/m 0 min 0 min 18 W/m 20,3 km/h (4 Bft) 95,74 %
22.02.2018 07:56 -2,6 C -2,8 C -4,4 C 87 % 0 lf 1022,9 hPa 0,0 l/m 0 min 0 min 19 W/m 20,3 km/h (4 Bft) 93,62 %
22.02.2018 07:58 -2,6 C -2,8 C -4,4 C 87 % 0 lf 1022,9 hPa 0,0 l/m 0 min 0 min 21 W/m 22,5 km/h (4 Bft) 89,36 %
22.02.2018 08:00 -2,6 C -2,8 C -4,4 C 87 % 0 lf 1022,9 hPa 0,0 l/m 0 min 0 min 25 W/m 15,8 km/h (3 Bft) 93,62 %
22.02.2018 08:02 -2,6 C -2,8 C -4,4 C 87 % 0 lf 1023,0 hPa 0,0 l/m 0 min 0 min 26 W/m 18,0 km/h (3 Bft) 93,62 %
22.02.2018 08:04 -2,6 C -2,2 C -4,4 C 87 % 0 lf 1022,9 hPa 0,0 l/m 0 min 0 min 29 W/m 20,3 km/h (4 Bft) 93,48 %
22.02.2018 08:06 -2,6 C -2,8 C -4,4 C 87 % 0 lf 1022,9 hPa 0,0 l/m 0 min 0 min 32 W/m 27,0 km/h (4 Bft) 97,87 %
22.02.2018 08:08 -2,6 C -2,2 C -4,4 C 87 % 0 lf 1023,0 hPa 0,0 l/m 0 min 0 min 35 W/m 20,3 km/h (4 Bft) 97,87 %
22.02.2018 08:10 -2,6 C -2,8 C -4,4 C 87 % 0 lf 1023,0 hPa 0,0 l/m 0 min 0 min 38 W/m 18,0 km/h (3 Bft) 95,74 %
22.02.2018 08:12 -2,6 C -2,2 C -4,4 C 87 % 0 lf 1023,0 hPa 0,0 l/m 2 min 0 min 42 W/m 15,8 km/h (3 Bft) 97,87 %
22.02.2018 08:14 -2,5 C -2,2 C -4,4 C 87 % 0 lf 1022,9 hPa 0,0 l/m 2 min 0 min 45 W/m 13,5 km/h (3 Bft) 97,83 %
22.02.2018 08:16 -2,5 C -2,2 C -4,4 C 87 % 0 lf 1023,0 hPa 0,0 l/m 2 min 0 min 49 W/m 13,5 km/h (3 Bft) 95,74 %
22.02.2018 08:18 -2,5 C -2,2 C -4,4 C 87 % 0 lf 1023,0 hPa 0,0 l/m 2 min 0 min 53 W/m 11,3 km/h (2 Bft) 95,74 %
22.02.2018 08:20 -2,5 C -2,2 C -3,9 C 87 % 0 lf 1023,0 hPa 0,0 l/m 2 min 0 min 55 W/m 20,3 km/h (4 Bft) 97,87 %
22.02.2018 08:22 -2,4 C -2,2 C -3,9 C 87 % 0 lf 1023,0 hPa 0,0 l/m 2 min 0 min 61 W/m 22,5 km/h (4 Bft) 93,62 %
22.02.2018 08:24 -2,4 C -2,2 C -3,9 C 87 % 0 lf 1023,0 hPa 0,0 l/m 2 min 0 min 65 W/m 20,3 km/h (4 Bft) 97,87 %
22.02.2018 08:26 -2,4 C -1,7 C -3,9 C 87 % 0 lf 1023,0 hPa 0,0 l/m 2 min 0 min 70 W/m 22,5 km/h (4 Bft) 95,65 %
22.02.2018 08:28 -2,4 C -1,7 C -3,9 C 87 % 0 lf 1023,0 hPa 0,0 l/m 2 min 0 min 74 W/m 22,5 km/h (4 Bft) 97,87 %
22.02.2018 08:30 -2,4 C -1,7 C -3,9 C 87 % 0 lf 1023,0 hPa 0,0 l/m 2 min 0 min 79 W/m 22,5 km/h (4 Bft) 97,87 %
22.02.2018 08:32 -2,3 C -1,7 C -3,3 C 88 % 0 lf 1023,1 hPa 0,0 l/m 2 min 0 min 84 W/m 20,3 km/h (4 Bft) 95,74 %
22.02.2018 08:34 -2,3 C -1,7 C -3,3 C 88 % 0 lf 1023,1 hPa 0,0 l/m 2 min 0 min 89 W/m 20,3 km/h (4 Bft) 97,87 %
22.02.2018 08:36 -2,3 C -1,7 C -3,3 C 88 % 0 lf 1023,0 hPa 0,0 l/m 2 min 0 min 93 W/m 20,3 km/h (4 Bft) 97,87 %
22.02.2018 08:38 -2,2 C -1,7 C -3,3 C 87 % 0 lf 1023,1 hPa 0,0 l/m 2 min 0 min 98 W/m 22,5 km/h (4 Bft) 91,49 %
22.02.2018 08:40 -2,2 C -1,7 C -3,3 C 87 % 0 lf 1023,1 hPa 0,0 l/m 2 min 0 min 104 W/m 24,8 km/h (4 Bft) 100,00 %
22.02.2018 08:42 -2,1 C -1,7 C -3,3 C 87 % 0 lf 1023,1 hPa 0,0 l/m 2 min 0 min 109 W/m 22,5 km/h (4 Bft) 100,00 %
22.02.2018 08:44 -2,1 C -1,7 C -3,3 C 87 % 0 lf 1023,1 hPa 0,0 l/m 2 min 0 min 114 W/m 18,0 km/h (3 Bft) 100,00 %
22.02.2018 08:46 -2,1 C -1,7 C -3,3 C 87 % 0 lf 1023,1 hPa 0,0 l/m 2 min 0 min 120 W/m 24,8 km/h (4 Bft) 95,74 %
22.02.2018 08:48 -2,0 C -1,7 C -3,3 C 87 % 0 lf 1023,2 hPa 0,0 l/m 2 min 0 min 124 W/m 27,0 km/h (4 Bft) 97,87 %
22.02.2018 08:50 -2,0 C -1,1 C -3,3 C 87 % 0 lf 1023,2 hPa 0,0 l/m 2 min 0 min 131 W/m 18,0 km/h (3 Bft) 100,00 %
22.02.2018 08:52 -1,9 C -1,1 C -2,8 C 87 % 0 lf 1023,1 hPa 0,0 l/m 2 min 0 min 136 W/m 15,8 km/h (3 Bft) 100,00 %
22.02.2018 08:54 -1,9 C -1,1 C -2,8 C 87 % 0 lf 1023,2 hPa 0,0 l/m 2 min 0 min 141 W/m 11,3 km/h (2 Bft) 100,00 %
22.02.2018 08:56 -1,8 C -1,1 C -2,8 C 87 % 0 lf 1023,2 hPa 0,0 l/m 2 min 0 min 147 W/m 18,0 km/h (3 Bft) 95,74 %
22.02.2018 08:58 -1,8 C -1,1 C -2,8 C 87 % 0 lf 1023,1 hPa 0,0 l/m 2 min 0 min 153 W/m 18,0 km/h (3 Bft) 95,74 %
22.02.2018 09:00 -1,8 C -1,1 C -2,8 C 86 % 0 lf 1023,1 hPa 0,0 l/m 2 min 0 min 159 W/m 22,5 km/h (4 Bft) 97,87 %
22.02.2018 09:02 -1,7 C -1,1 C -2,8 C 86 % 0 lf 1023,2 hPa 0,0 l/m 2 min 0 min 165 W/m 20,3 km/h (4 Bft) 96,23 %
22.02.2018 09:04 -1,7 C -1,1 C -2,8 C 86 % 0 lf 1023,2 hPa 0,0 l/m 2 min 0 min 171 W/m 11,3 km/h (2 Bft) 97,87 %
22.02.2018 09:06 -1,7 C -0,6 C -2,8 C 86 % 0 lf 1023,2 hPa 0,0 l/m 2 min 0 min 177 W/m 22,5 km/h (4 Bft) 97,87 %
22.02.2018 09:08 -1,6 C 0,0 C -2,8 C 86 % 0 lf 1023,2 hPa 0,0 l/m 2 min 0 min 174 W/m 29,3 km/h (5 Bft) 97,87 %
22.02.2018 09:10 -1,6 C 1,7 C -2,2 C 86 % 0 lf 1023,2 hPa 0,0 l/m 2 min 0 min 186 W/m 20,3 km/h (4 Bft) 97,83 %
22.02.2018 09:12 -1,5 C 2,8 C -2,2 C 86 % 0 lf 1023,3 hPa 0,0 l/m 2 min 0 min 195 W/m 29,3 km/h (5 Bft) 97,87 %
22.02.2018 09:14 -1,4 C 2,8 C -2,2 C 86 % 0 lf 1023,3 hPa 0,0 l/m 2 min 0 min 199 W/m 29,3 km/h (5 Bft) 95,74 %
22.02.2018 09:16 -1,3 C 3,3 C -2,2 C 85 % 0 lf 1023,3 hPa 0,0 l/m 2 min 0 min 205 W/m 22,5 km/h (4 Bft) 96,00 %
22.02.2018 09:18 -1,2 C 3,3 C -2,2 C 85 % 0 lf 1023,3 hPa 0,0 l/m 2 min 0 min 210 W/m 24,8 km/h (4 Bft) 95,74 %
22.02.2018 09:20 -1,1 C 4,4 C -2,2 C 85 % 0 lf 1023,3 hPa 0,0 l/m 2 min 0 min 215 W/m 22,5 km/h (4 Bft) 97,87 %
22.02.2018 09:22 -1,1 C 6,1 C -2,2 C 85 % 0 lf 1023,3 hPa 0,0 l/m 2 min 0 min 221 W/m 18,0 km/h (3 Bft) 95,65 %
22.02.2018 09:24 -1,0 C 6,7 C -2,2 C 85 % 0 lf 1023,2 hPa 0,0 l/m 2 min 0 min 227 W/m 18,0 km/h (3 Bft) 97,87 %
22.02.2018 09:26 -0,9 C 6,7 C -2,2 C 85 % 0 lf 1023,3 hPa 0,0 l/m 2 min 0 min 232 W/m 22,5 km/h (4 Bft) 93,62 %
22.02.2018 09:28 -0,8 C 7,8 C -2,2 C 84 % 0 lf 1023,3 hPa 0,0 l/m 2 min 0 min 237 W/m 22,5 km/h (4 Bft) 95,74 %
22.02.2018 09:30 -0,7 C 6,7 C -1,7 C 84 % 0 lf 1023,3 hPa 0,0 l/m 2 min 0 min 243 W/m 20,3 km/h (4 Bft) 95,74 %
22.02.2018 09:32 -0,6 C 6,7 C -1,7 C 84 % 0 lf 1023,3 hPa 0,0 l/m 2 min 0 min 249 W/m 18,0 km/h (3 Bft) 95,74 %
22.02.2018 09:34 -0,4 C 7,2 C -1,1 C 84 % 0 lf 1023,3 hPa 0,0 l/m 2 min 0 min 253 W/m 20,3 km/h (4 Bft) 95,65 %
22.02.2018 09:36 -0,3 C 5,6 C -0,6 C 83 % 0 lf 1023,3 hPa 0,0 l/m 2 min 0 min 258 W/m 18,0 km/h (3 Bft) 95,74 %
22.02.2018 09:38 -0,2 C 5,6 C 0,0 C 83 % 0 lf 1023,2 hPa 0,0 l/m 2 min 0 min 265 W/m 20,3 km/h (4 Bft) 93,62 %
22.02.2018 09:40 -0,1 C 6,1 C 0,6 C 82 % 0 lf 1023,2 hPa 0,0 l/m 2 min 0 min 271 W/m 20,3 km/h (4 Bft) 93,62 %
22.02.2018 09:42 0,0 C 7,2 C 1,1 C 82 % 0 lf 1023,2 hPa 0,0 l/m 2 min 0 min 273 W/m 18,0 km/h (3 Bft) 97,87 %
22.02.2018 09:44 0,1 C 7,2 C 2,2 C 82 % 0 lf 1023,2 hPa 0,0 l/m 2 min 0 min 279 W/m 18,0 km/h (3 Bft) 93,48 %
22.02.2018 09:46 0,2 C 8,9 C 3,3 C 81 % 0 lf 1023,2 hPa 0,0 l/m 2 min 0 min 285 W/m 11,3 km/h (2 Bft) 93,62 %
22.02.2018 09:48 0,3 C 7,2 C 3,9 C 81 % 0 lf 1023,2 hPa 0,0 l/m 2 min 0 min 287 W/m 24,8 km/h (4 Bft) 93,62 %
22.02.2018 09:50 0,4 C 6,1 C 3,9 C 81 % 0 lf 1023,2 hPa 0,0 l/m 2 min 0 min 293 W/m 20,3 km/h (4 Bft) 95,83 %
22.02.2018 09:52 0,5 C 6,1 C 3,9 C 80 % 0 lf 1023,2 hPa 0,0 l/m 2 min 0 min 297 W/m 22,5 km/h (4 Bft) 95,74 %
22.02.2018 09:54 0,6 C 5,6 C 3,9 C 80 % 0 lf 1023,3 hPa 0,0 l/m 2 min 0 min 300 W/m 22,5 km/h (4 Bft) 95,74 %
22.02.2018 09:56 0,7 C 5,6 C 3,3 C 79 % 0 lf 1023,2 hPa 0,0 l/m 2 min 0 min 304 W/m 20,3 km/h (4 Bft) 93,48 %
22.02.2018 09:58 0,8 C 5,0 C 2,8 C 78 % 0 lf 1023,3 hPa 0,0 l/m 2 min 0 min 308 W/m 24,8 km/h (4 Bft) 93,62 %
22.02.2018 10:00 0,9 C 6,1 C 2,8 C 78 % 0 lf 1023,3 hPa 0,0 l/m 2 min 0 min 311 W/m 29,3 km/h (5 Bft) 97,87 %
22.02.2018 10:02 0,9 C 6,7 C 2,8 C 77 % 0 lf 1023,3 hPa 0,0 l/m 2 min 0 min 316 W/m 22,5 km/h (4 Bft) 95,74 %
22.02.2018 10:04 1,0 C 7,8 C 2,8 C 77 % 0 lf 1023,2 hPa 0,0 l/m 2 min 0 min 321 W/m 29,3 km/h (5 Bft) 100,00 %
22.02.2018 10:06 1,1 C 8,3 C 2,8 C 77 % 0 lf 1023,2 hPa 0,0 l/m 2 min 0 min 324 W/m 27,0 km/h (4 Bft) 100,00 %
22.02.2018 10:08 1,1 C 7,8 C 2,8 C 77 % 0 lf 1023,2 hPa 0,0 l/m 2 min 0 min 328 W/m 24,8 km/h (4 Bft) 100,00 %
22.02.2018 10:10 1,2 C 7,8 C 2,8 C 77 % 0 lf 1023,1 hPa 0,0 l/m 2 min 0 min 331 W/m 24,8 km/h (4 Bft) 95,74 %
22.02.2018 10:12 1,2 C 7,8 C 2,2 C 76 % 0 lf 1023,1 hPa 0,0 l/m 2 min 0 min 336 W/m 33,8 km/h (5 Bft) 100,00 %
22.02.2018 10:14 1,3 C 8,3 C 1,7 C 76 % 0 lf 1023,1 hPa 0,0 l/m 2 min 0 min 339 W/m 29,3 km/h (5 Bft) 100,00 %
22.02.2018 10:16 1,4 C 7,8 C 1,1 C 76 % 0 lf 1023,2 hPa 0,0 l/m 2 min 0 min 343 W/m 38,3 km/h (5 Bft) 97,87 %
22.02.2018 10:18 1,4 C 6,1 C 0,6 C 75 % 0 lf 1023,1 hPa 0,0 l/m 2 min 0 min 347 W/m 33,8 km/h (5 Bft) 95,74 %
22.02.2018 10:20 1,5 C 6,1 C 0,0 C 74 % 0 lf 1023,1 hPa 0,0 l/m 2 min 0 min 351 W/m 29,3 km/h (5 Bft) 95,74 %
22.02.2018 10:22 1,6 C 7,8 C 0,0 C 74 % 0 lf 1023,1 hPa 0,0 l/m 2 min 0 min 353 W/m 33,8 km/h (5 Bft) 97,87 %
22.02.2018 10:24 1,6 C 9,4 C 0,0 C 74 % 0 lf 1023,1 hPa 0,0 l/m 2 min 0 min 356 W/m 36,0 km/h (5 Bft) 95,74 %
22.02.2018 10:26 1,6 C 7,2 C 0,0 C 74 % 0 lf 1023,1 hPa 0,0 l/m 2 min 0 min 359 W/m 31,5 km/h (5 Bft) 97,87 %
22.02.2018 10:28 1,7 C 6,1 C 0,0 C 73 % 0 lf 1023,0 hPa 0,0 l/m 2 min 0 min 364 W/m 31,5 km/h (5 Bft) 97,87 %
22.02.2018 10:30 1,7 C 7,2 C 0,0 C 73 % 0 lf 1023,0 hPa 0,0 l/m 2 min 0 min 368 W/m 22,5 km/h (4 Bft) 95,74 %
22.02.2018 10:32 1,8 C 7,8 C 0,0 C 73 % 0 lf 1022,9 hPa 0,0 l/m 2 min 0 min 373 W/m 27,0 km/h (4 Bft) 95,65 %
22.02.2018 10:34 1,8 C 7,8 C 0,0 C 73 % 0 lf 1022,9 hPa 0,0 l/m 2 min 0 min 375 W/m 22,5 km/h (4 Bft) 93,62 %
22.02.2018 10:36 1,9 C 6,1 C 0,0 C 73 % 0 lf 1023,0 hPa 0,0 l/m 2 min 0 min 381 W/m 38,3 km/h (5 Bft) 93,62 %
22.02.2018 10:38 1,9 C 6,1 C 0,0 C 72 % 0 lf 1023,1 hPa 0,0 l/m 2 min 0 min 383 W/m 27,0 km/h (4 Bft) 95,74 %
22.02.2018 10:40 2,1 C 7,8 C 0,6 C 72 % 0 lf 1023,0 hPa 0,0 l/m 2 min 0 min 387 W/m 24,8 km/h (4 Bft) 95,74 %
22.02.2018 10:42 2,1 C 8,3 C 0,6 C 72 % 0 lf 1023,0 hPa 0,0 l/m 2 min 0 min 391 W/m 31,5 km/h (5 Bft) 93,48 %
22.02.2018 10:44 2,2 C 8,9 C 0,6 C 72 % 0 lf 1023,0 hPa 0,0 l/m 2 min 0 min 396 W/m 38,3 km/h (5 Bft) 95,74 %
22.02.2018 10:46 2,2 C 7,8 C 0,6 C 72 % 0 lf 1023,0 hPa 0,0 l/m 2 min 0 min 397 W/m 38,3 km/h (5 Bft) 93,62 %
22.02.2018 10:48 2,3 C 8,3 C 0,6 C 72 % 0 lf 1023,0 hPa 0,0 l/m 2 min 0 min 400 W/m 20,3 km/h (4 Bft) 95,74 %
22.02.2018 10:50 2,4 C 9,4 C 0,6 C 71 % 0 lf 1023,0 hPa 0,0 l/m 2 min 0 min 405 W/m 31,5 km/h (5 Bft) 93,62 %
22.02.2018 10:52 2,4 C 10,6 C 0,6 C 71 % 0 lf 1023,0 hPa 0,0 l/m 2 min 0 min 405 W/m 29,3 km/h (5 Bft) 95,74 %
22.02.2018 10:54 2,5 C 8,9 C 0,6 C 71 % 0 lf 1023,0 hPa 0,0 l/m 2 min 0 min 408 W/m 31,5 km/h (5 Bft) 93,48 %
22.02.2018 10:56 2,6 C 9,4 C 0,6 C 71 % 0 lf 1023,1 hPa 0,0 l/m 2 min 0 min 413 W/m 29,3 km/h (5 Bft) 93,62 %
22.02.2018 10:58 2,6 C 10,6 C 0,6 C 71 % 0 lf 1023,1 hPa 0,0 l/m 2 min 0 min 415 W/m 22,5 km/h (4 Bft) 95,74 %
22.02.2018 11:00 2,7 C 10,0 C 1,1 C 71 % 0 lf 1023,0 hPa 0,0 l/m 2 min 0 min 417 W/m 33,8 km/h (5 Bft) 93,62 %
22.02.2018 11:02 2,8 C 10,0 C 1,1 C 70 % 0 lf 1023,1 hPa 0,0 l/m 2 min 0 min 418 W/m 38,3 km/h (5 Bft) 95,74 %
22.02.2018 11:04 2,8 C 8,9 C 1,1 C 70 % 0 lf 1023,1 hPa 0,0 l/m 2 min 0 min 417 W/m 38,3 km/h (5 Bft) 95,74 %
22.02.2018 11:06 2,8 C 8,3 C 1,1 C 69 % 0 lf 1023,0 hPa 0,0 l/m 2 min 0 min 422 W/m 29,3 km/h (5 Bft) 95,65 %
22.02.2018 11:08 2,9 C 7,8 C 1,1 C 68 % 0 lf 1023,1 hPa 0,0 l/m 2 min 0 min 424 W/m 31,5 km/h (5 Bft) 95,74 %
22.02.2018 11:10 2,9 C 8,3 C 1,1 C 68 % 0 lf 1023,0 hPa 0,0 l/m 2 min 0 min 426 W/m 33,8 km/h (5 Bft) 97,87 %
22.02.2018 11:12 2,9 C 8,9 C 1,1 C 68 % 0 lf 1023,1 hPa 0,0 l/m 2 min 0 min 430 W/m 22,5 km/h (4 Bft) 100,00 %
22.02.2018 11:14 3,0 C 8,3 C 1,1 C 68 % 0 lf 1023,1 hPa 0,0 l/m 2 min 0 min 431 W/m 24,8 km/h (4 Bft) 100,00 %
22.02.2018 11:16 3,1 C 7,8 C 1,1 C 68 % 0 lf 1023,0 hPa 0,0 l/m 2 min 0 min 434 W/m 29,3 km/h (5 Bft) 100,00 %
22.02.2018 11:18 3,1 C 8,9 C 1,1 C 68 % 0 lf 1023,0 hPa 0,0 l/m 2 min 0 min 438 W/m 18,0 km/h (3 Bft) 97,83 %
22.02.2018 11:20 3,2 C 7,8 C 1,1 C 67 % 0 lf 1023,0 hPa 0,0 l/m 2 min 0 min 439 W/m 33,8 km/h (5 Bft) 97,87 %
22.02.2018 11:22 3,2 C 9,4 C 1,7 C 67 % 0 lf 1023,0 hPa 0,0 l/m 2 min 0 min 443 W/m 24,8 km/h (4 Bft) 100,00 %
22.02.2018 11:24 3,3 C 10,0 C 1,7 C 67 % 0 lf 1023,0 hPa 0,0 l/m 2 min 0 min 443 W/m 42,8 km/h (6 Bft) 97,87 %
22.02.2018 11:26 3,3 C 8,3 C 2,2 C 67 % 0 lf 1023,0 hPa 0,0 l/m 2 min 0 min 446 W/m 31,5 km/h (5 Bft) 97,87 %
22.02.2018 11:28 3,3 C 8,9 C 2,8 C 67 % 0 lf 1023,0 hPa 0,0 l/m 2 min 0 min 447 W/m 24,8 km/h (4 Bft) 100,00 %
22.02.2018 11:30 3,4 C 9,4 C 2,8 C 67 % 0 lf 1023,0 hPa 0,0 l/m 2 min 0 min 447 W/m 22,5 km/h (4 Bft) 100,00 %
22.02.2018 11:32 3,4 C 10,6 C 3,3 C 67 % 0 lf 1023,0 hPa 0,0 l/m 2 min 0 min 453 W/m 22,5 km/h (4 Bft) 100,00 %
22.02.2018 11:34 3,5 C 11,1 C 3,9 C 67 % 0 lf 1023,0 hPa 0,0 l/m 2 min 0 min 450 W/m 29,3 km/h (5 Bft) 100,00 %
22.02.2018 11:36 3,6 C 11,7 C 4,4 C 67 % 0 lf 1023,0 hPa 0,0 l/m 2 min 0 min 454 W/m 31,5 km/h (5 Bft) 100,00 %
22.02.2018 11:38 3,6 C 12,2 C 5,0 C 67 % 0 lf 1023,0 hPa 0,0 l/m 2 min 0 min 455 W/m 31,5 km/h (5 Bft) 100,00 %
22.02.2018 11:40 3,6 C 11,7 C 5,0 C 67 % 0 lf 1023,0 hPa 0,0 l/m 2 min 0 min 458 W/m 24,8 km/h (4 Bft) 100,00 %
22.02.2018 11:42 3,7 C 12,8 C 5,6 C 67 % 0 lf 1023,0 hPa 0,0 l/m 2 min 0 min 460 W/m 31,5 km/h (5 Bft) 97,83 %
22.02.2018 11:44 3,8 C 11,1 C 5,6 C 66 % 0 lf 1023,0 hPa 0,0 l/m 2 min 0 min 462 W/m 24,8 km/h (4 Bft) 97,87 %
22.02.2018 11:46 3,8 C 11,1 C 6,1 C 66 % 0 lf 1022,9 hPa 0,0 l/m 2 min 0 min 463 W/m 22,5 km/h (4 Bft) 97,87 %
22.02.2018 11:48 3,9 C 11,7 C 6,1 C 66 % 0 lf 1022,9 hPa 0,0 l/m 2 min 0 min 462 W/m 31,5 km/h (5 Bft) 95,74 %
22.02.2018 11:50 4,0 C 12,2 C 6,1 C 66 % 0 lf 1022,9 hPa 0,0 l/m 2 min 0 min 463 W/m 38,3 km/h (5 Bft) 97,87 %
22.02.2018 11:52 4,1 C 12,2 C 5,6 C 65 % 0 lf 1022,9 hPa 0,0 l/m 2 min 0 min 465 W/m 27,0 km/h (4 Bft) 97,83 %
22.02.2018 11:54 4,1 C 12,8 C 5,0 C 65 % 0 lf 1022,9 hPa 0,0 l/m 2 min 0 min 467 W/m 22,5 km/h (4 Bft) 95,74 %
22.02.2018 11:56 4,2 C 13,3 C 5,0 C 65 % 0 lf 1022,9 hPa 0,0 l/m 2 min 0 min 469 W/m 27,0 km/h (4 Bft) 95,74 %
22.02.2018 11:58 4,2 C 12,8 C 4,4 C 65 % 0 lf 1022,8 hPa 0,0 l/m 2 min 0 min 468 W/m 31,5 km/h (5 Bft) 95,74 %
22.02.2018 12:00 4,3 C 12,2 C 5,0 C 65 % 0 lf 1022,9 hPa 0,0 l/m 2 min 0 min 477 W/m 29,3 km/h (5 Bft) 97,87 %
22.02.2018 12:02 4,3 C 11,1 C 4,4 C 64 % 0 lf 1022,9 hPa 0,0 l/m 2 min 0 min 474 W/m 33,8 km/h (5 Bft) 97,87 %
22.02.2018 12:04 4,3 C 11,1 C 3,9 C 64 % 0 lf 1022,9 hPa 0,0 l/m 2 min 0 min 476 W/m 33,8 km/h (5 Bft) 93,48 %
22.02.2018 12:07 4,4 C 10,0 C 3,3 C 63 % 0 lf 1022,9 hPa 0,0 l/m 3 min 0 min 480 W/m 38,3 km/h (5 Bft) 95,83 %
22.02.2018 12:08 4,4 C 10,6 C 3,3 C 63 % 0 lf 1022,9 hPa 0,0 l/m 1 min 0 min 483 W/m 31,5 km/h (5 Bft) 100,00 %
22.02.2018 12:10 4,4 C 11,1 C 3,3 C 63 % 0 lf 1022,8 hPa 0,0 l/m 2 min 0 min 485 W/m 33,8 km/h (5 Bft) 97,87 %
22.02.2018 12:12 4,4 C 10,6 C 3,3 C 63 % 0 lf 1022,8 hPa 0,0 l/m 2 min 0 min 487 W/m 47,3 km/h (6 Bft) 95,74 %
22.02.2018 12:14 4,4 C 10,6 C 2,8 C 63 % 0 lf 1022,8 hPa 0,0 l/m 2 min 0 min 490 W/m 33,8 km/h (5 Bft) 91,49 %
22.02.2018 12:16 4,5 C 10,6 C 2,8 C 63 % 0 lf 1022,8 hPa 0,0 l/m 2 min 0 min 492 W/m 38,3 km/h (5 Bft) 97,83 %
22.02.2018 12:18 4,5 C 10,6 C 2,8 C 62 % 0 lf 1022,8 hPa 0,0 l/m 2 min 0 min 492 W/m 47,3 km/h (6 Bft) 95,74 %
22.02.2018 12:20 4,5 C 9,4 C 2,8 C 62 % 0 lf 1022,8 hPa 0,0 l/m 2 min 0 min 493 W/m 29,3 km/h (5 Bft) 95,74 %
22.02.2018 12:22 4,5 C 8,3 C 2,8 C 61 % 0 lf 1022,8 hPa 0,0 l/m 2 min 0 min 493 W/m 45,1 km/h (6 Bft) 95,74 %
22.02.2018 12:24 4,5 C 9,4 C 2,8 C 61 % 0 lf 1022,7 hPa 0,0 l/m 2 min 0 min 495 W/m 31,5 km/h (5 Bft) 95,74 %
22.02.2018 12:26 4,5 C 10,0 C 2,8 C 62 % 0 lf 1022,7 hPa 0,0 l/m 2 min 0 min 497 W/m 27,0 km/h (4 Bft) 95,74 %
22.02.2018 12:28 4,6 C 8,9 C 2,8 C 61 % 0 lf 1022,8 hPa 0,0 l/m 2 min 0 min 492 W/m 33,8 km/h (5 Bft) 97,83 %
22.02.2018 12:30 4,6 C 10,6 C 2,8 C 62 % 0 lf 1022,8 hPa 0,0 l/m 2 min 0 min 491 W/m 40,6 km/h (6 Bft) 97,87 %
22.02.2018 12:32 4,6 C 11,7 C 2,8 C 62 % 0 lf 1022,7 hPa 0,0 l/m 2 min 0 min 492 W/m 38,3 km/h (5 Bft) 97,87 %
22.02.2018 12:34 4,6 C 10,0 C 2,8 C 62 % 0 lf 1022,7 hPa 0,0 l/m 2 min 0 min 492 W/m 31,5 km/h (5 Bft) 97,87 %
22.02.2018 12:36 4,6 C 9,4 C 2,8 C 61 % 0 lf 1022,6 hPa 0,0 l/m 2 min 0 min 485 W/m 33,8 km/h (5 Bft) 97,87 %
22.02.2018 12:38 4,6 C 9,4 C 2,8 C 61 % 0 lf 1022,6 hPa 0,0 l/m 2 min 0 min 491 W/m 31,5 km/h (5 Bft) 95,74 %
22.02.2018 12:40 4,6 C 11,1 C 2,8 C 62 % 0 lf 1022,6 hPa 0,0 l/m 2 min 0 min 491 W/m 29,3 km/h (5 Bft) 97,83 %
22.02.2018 12:42 4,7 C 12,8 C 3,3 C 62 % 0 lf 1022,6 hPa 0,0 l/m 2 min 0 min 495 W/m 29,3 km/h (5 Bft) 97,87 %
22.02.2018 12:44 4,8 C 13,3 C 2,8 C 62 % 0 lf 1022,6 hPa 0,0 l/m 2 min 0 min 494 W/m 27,0 km/h (4 Bft) 97,87 %
22.02.2018 12:46 4,8 C 11,7 C 3,3 C 62 % 0 lf 1022,5 hPa 0,0 l/m 2 min 0 min 493 W/m 33,8 km/h (5 Bft) 97,87 %
22.02.2018 12:48 4,9 C 11,1 C 3,3 C 62 % 0 lf 1022,5 hPa 0,0 l/m 2 min 0 min 490 W/m 38,3 km/h (5 Bft) 97,87 %
22.02.2018 12:50 4,9 C 11,7 C 3,3 C 62 % 0 lf 1022,5 hPa 0,0 l/m 2 min 0 min 497 W/m 40,6 km/h (6 Bft) 97,83 %
22.02.2018 12:52 5,0 C 11,1 C 3,3 C 61 % 0 lf 1022,5 hPa 0,0 l/m 2 min 0 min 503 W/m 47,3 km/h (6 Bft) 93,62 %
22.02.2018 12:54 5,0 C 11,7 C 3,3 C 60 % 0 lf 1022,5 hPa 0,0 l/m 2 min 0 min 497 W/m 38,3 km/h (5 Bft) 100,00 %
22.02.2018 12:56 5,1 C 12,2 C 3,3 C 61 % 0 lf 1022,5 hPa 0,0 l/m 2 min 0 min 493 W/m 29,3 km/h (5 Bft) 100,00 %
22.02.2018 12:58 5,2 C 12,2 C 3,3 C 60 % 0 lf 1022,4 hPa 0,0 l/m 2 min 0 min 488 W/m 31,5 km/h (5 Bft) 100,00 %
22.02.2018 13:00 5,2 C 10,6 C 3,3 C 60 % 0 lf 1022,2 hPa 0,0 l/m 2 min 0 min 491 W/m 42,8 km/h (6 Bft) 100,00 %
22.02.2018 13:02 5,1 C 8,9 C 3,3 C 59 % 0 lf 1022,3 hPa 0,0 l/m 2 min 0 min 485 W/m 42,8 km/h (6 Bft) 97,83 %
22.02.2018 13:04 5,1 C 9,4 C 3,3 C 59 % 0 lf 1022,3 hPa 0,0 l/m 2 min 0 min 483 W/m 36,0 km/h (5 Bft) 100,00 %
22.02.2018 13:06 5,1 C 11,1 C 3,3 C 60 % 0 lf 1022,2 hPa 0,0 l/m 2 min 0 min 482 W/m 36,0 km/h (5 Bft) 100,00 %
22.02.2018 13:08 5,1 C 11,7 C 3,3 C 60 % 0 lf 1022,1 hPa 0,0 l/m 2 min 0 min 485 W/m 33,8 km/h (5 Bft) 95,74 %
22.02.2018 13:10 5,1 C 11,1 C 3,3 C 59 % 0 lf 1022,2 hPa 0,0 l/m 2 min 0 min 484 W/m 33,8 km/h (5 Bft) 100,00 %
22.02.2018 13:12 5,1 C 10,0 C 3,3 C 58 % 0 lf 1022,2 hPa 0,0 l/m 2 min 0 min 485 W/m 40,6 km/h (6 Bft) 100,00 %
22.02.2018 13:14 5,1 C 10,6 C 3,3 C 58 % 0 lf 1022,2 hPa 0,0 l/m 2 min 0 min 492 W/m 33,8 km/h (5 Bft) 100,00 %
22.02.2018 13:16 5,1 C 9,4 C 3,3 C 58 % 0 lf 1022,1 hPa 0,0 l/m 2 min 0 min 482 W/m 36,0 km/h (5 Bft) 97,87 %
22.02.2018 13:18 5,1 C 10,0 C 3,3 C 58 % 0 lf 1022,1 hPa 0,0 l/m 2 min 0 min 482 W/m 31,5 km/h (5 Bft) 100,00 %
22.02.2018 13:20 5,2 C 11,1 C 3,3 C 59 % 0 lf 1022,1 hPa 0,0 l/m 2 min 0 min 486 W/m 29,3 km/h (5 Bft) 97,87 %
22.02.2018 13:22 5,2 C 11,1 C 3,3 C 58 % 0 lf 1022,1 hPa 0,0 l/m 2 min 0 min 482 W/m 40,6 km/h (6 Bft) 100,00 %
22.02.2018 13:24 5,2 C 11,7 C 3,3 C 58 % 0 lf 1022,1 hPa 0,0 l/m 2 min 0 min 480 W/m 33,8 km/h (5 Bft) 97,87 %
22.02.2018 13:26 5,2 C 11,7 C 3,3 C 58 % 0 lf 1022,1 hPa 0,0 l/m 2 min 0 min 483 W/m 38,3 km/h (5 Bft) 100,00 %
22.02.2018 13:28 5,3 C 12,2 C 3,3 C 57 % 0 lf 1022,1 hPa 0,0 l/m 2 min 0 min 474 W/m 42,8 km/h (6 Bft) 100,00 %
22.02.2018 13:30 5,3 C 12,8 C 3,3 C 58 % 0 lf 1022,1 hPa 0,0 l/m 2 min 0 min 470 W/m 29,3 km/h (5 Bft) 100,00 %
22.02.2018 13:32 5,4 C 12,2 C 3,3 C 58 % 0 lf 1022,1 hPa 0,0 l/m 2 min 0 min 461 W/m 42,8 km/h (6 Bft) 100,00 %
22.02.2018 13:34 5,4 C 12,8 C 3,3 C 58 % 0 lf 1022,1 hPa 0,0 l/m 2 min 0 min 428 W/m 27,0 km/h (4 Bft) 97,87 %
22.02.2018 13:36 5,5 C 12,2 C 3,3 C 57 % 0 lf 1022,1 hPa 0,0 l/m 2 min 0 min 469 W/m 33,8 km/h (5 Bft) 95,74 %
22.02.2018 13:38 5,6 C 13,3 C 3,3 C 57 % 0 lf 1022,0 hPa 0,0 l/m 2 min 0 min 466 W/m 22,5 km/h (4 Bft) 97,83 %
22.02.2018 13:40 5,6 C 13,3 C 3,3 C 57 % 0 lf 1022,1 hPa 0,0 l/m 2 min 0 min 466 W/m 33,8 km/h (5 Bft) 100,00 %
22.02.2018 13:42 5,7 C 13,3 C 3,3 C 56 % 0 lf 1022,0 hPa 0,0 l/m 2 min 0 min 462 W/m 29,3 km/h (5 Bft) 95,74 %
22.02.2018 13:44 5,7 C 13,9 C 3,3 C 57 % 0 lf 1021,9 hPa 0,0 l/m 2 min 0 min 464 W/m 24,8 km/h (4 Bft) 97,87 %
22.02.2018 13:46 5,8 C 13,3 C 3,9 C 56 % 0 lf 1021,9 hPa 0,0 l/m 2 min 0 min 463 W/m 31,5 km/h (5 Bft) 100,00 %
22.02.2018 13:48 5,8 C 13,3 C 3,9 C 56 % 0 lf 1021,9 hPa 0,0 l/m 2 min 0 min 462 W/m 29,3 km/h (5 Bft) 97,87 %
22.02.2018 13:50 5,9 C 13,9 C 3,9 C 56 % 0 lf 1021,8 hPa 0,0 l/m 2 min 0 min 462 W/m 36,0 km/h (5 Bft) 95,65 %
22.02.2018 13:52 5,9 C 13,9 C 3,9 C 56 % 0 lf 1021,9 hPa 0,0 l/m 2 min 0 min 459 W/m 36,0 km/h (5 Bft) 95,74 %
22.02.2018 13:54 5,9 C 12,8 C 3,3 C 56 % 0 lf 1021,8 hPa 0,0 l/m 2 min 0 min 454 W/m 36,0 km/h (5 Bft) 95,74 %
22.02.2018 13:56 5,9 C 11,7 C 3,3 C 55 % 0 lf 1021,8 hPa 0,0 l/m 2 min 0 min 449 W/m 33,8 km/h (5 Bft) 97,87 %
22.02.2018 13:58 5,8 C 11,7 C 3,3 C 55 % 0 lf 1021,8 hPa 0,0 l/m 2 min 0 min 447 W/m 33,8 km/h (5 Bft) 97,87 %
22.02.2018 14:00 5,8 C 12,8 C 3,3 C 55 % 0 lf 1021,7 hPa 0,0 l/m 2 min 0 min 449 W/m 31,5 km/h (5 Bft) 91,30 %
22.02.2018 14:02 5,8 C 12,8 C 3,3 C 55 % 0 lf 1021,6 hPa 0,0 l/m 2 min 0 min 446 W/m 36,0 km/h (5 Bft) 97,87 %
22.02.2018 14:04 5,8 C 12,8 C 3,3 C 54 % 0 lf 1021,6 hPa 0,0 l/m 2 min 0 min 443 W/m 31,5 km/h (5 Bft) 91,49 %
22.02.2018 14:06 5,8 C 12,8 C 3,3 C 54 % 0 lf 1021,7 hPa 0,0 l/m 2 min 0 min 436 W/m 31,5 km/h (5 Bft) 95,74 %
22.02.2018 14:08 5,8 C 12,2 C 3,3 C 55 % 0 lf 1021,6 hPa 0,0 l/m 2 min 0 min 435 W/m 33,8 km/h (5 Bft) 95,74 %
22.02.2018 14:10 5,8 C 10,0 C 3,3 C 54 % 0 lf 1021,6 hPa 0,0 l/m 2 min 0 min 433 W/m 40,6 km/h (6 Bft) 93,62 %
22.02.2018 14:12 5,7 C 8,9 C 3,3 C 53 % 0 lf 1021,5 hPa 0,0 l/m 2 min 0 min 433 W/m 47,3 km/h (6 Bft) 93,48 %
22.02.2018 14:14 5,7 C 10,6 C 3,3 C 54 % 0 lf 1021,5 hPa 0,0 l/m 2 min 0 min 432 W/m 42,8 km/h (6 Bft) 95,74 %
22.02.2018 14:16 5,7 C 11,7 C 3,3 C 55 % 0 lf 1021,4 hPa 0,0 l/m 2 min 0 min 431 W/m 29,3 km/h (5 Bft) 93,62 %
22.02.2018 14:18 5,7 C 12,2 C 3,9 C 55 % 0 lf 1021,5 hPa 0,0 l/m 2 min 0 min 430 W/m 27,0 km/h (4 Bft) 93,62 %
22.02.2018 14:20 5,8 C 12,2 C 3,9 C 56 % 0 lf 1021,3 hPa 0,0 l/m 2 min 0 min 428 W/m 27,0 km/h (4 Bft) 91,49 %
22.02.2018 14:22 5,8 C 12,8 C 3,9 C 56 % 0 lf 1021,3 hPa 0,0 l/m 2 min 0 min 424 W/m 27,0 km/h (4 Bft) 89,36 %
22.02.2018 14:24 5,9 C 12,8 C 3,9 C 55 % 0 lf 1021,3 hPa 0,0 l/m 2 min 0 min 421 W/m 36,0 km/h (5 Bft) 89,13 %
22.02.2018 14:26 5,9 C 12,8 C 3,9 C 56 % 0 lf 1021,3 hPa 0,0 l/m 2 min 0 min 416 W/m 22,5 km/h (4 Bft) 89,36 %
22.02.2018 14:28 5,9 C 11,7 C 3,9 C 55 % 0 lf 1021,3 hPa 0,0 l/m 2 min 0 min 414 W/m 38,3 km/h (5 Bft) 89,36 %
22.02.2018 14:30 6,0 C 12,2 C 3,9 C 55 % 0 lf 1021,2 hPa 0,0 l/m 2 min 0 min 410 W/m 33,8 km/h (5 Bft) 87,23 %
22.02.2018 14:32 6,0 C 12,2 C 3,9 C 55 % 0 lf 1021,2 hPa 0,0 l/m 2 min 0 min 406 W/m 24,8 km/h (4 Bft) 89,36 %
22.02.2018 14:34 6,0 C 12,8 C 3,9 C 55 % 0 lf 1021,2 hPa 0,0 l/m 2 min 0 min 404 W/m 27,0 km/h (4 Bft) 89,36 %
22.02.2018 14:36 6,1 C 12,2 C 3,9 C 55 % 0 lf 1021,2 hPa 0,0 l/m 2 min 0 min 404 W/m 31,5 km/h (5 Bft) 94,74 %
22.02.2018 14:38 6,1 C 10,6 C 3,9 C 54 % 0 lf 1021,2 hPa 0,0 l/m 2 min 0 min 404 W/m 33,8 km/h (5 Bft) 89,13 %
22.02.2018 14:40 6,1 C 10,0 C 3,9 C 53 % 0 lf 1021,1 hPa 0,0 l/m 2 min 0 min 403 W/m 27,0 km/h (4 Bft) 93,62 %
22.02.2018 14:42 6,0 C 10,6 C 3,9 C 54 % 0 lf 1021,1 hPa 0,0 l/m 2 min 0 min 398 W/m 22,5 km/h (4 Bft) 93,62 %
22.02.2018 14:44 6,0 C 10,0 C 4,4 C 54 % 0 lf 1021,1 hPa 0,0 l/m 2 min 0 min 395 W/m 40,6 km/h (6 Bft) 93,62 %
22.02.2018 14:46 6,0 C 10,6 C 5,6 C 54 % 0 lf 1021,0 hPa 0,0 l/m 2 min 0 min 390 W/m 36,0 km/h (5 Bft) 95,74 %
22.02.2018 14:48 6,1 C 10,0 C 6,1 C 54 % 0 lf 1021,1 hPa 0,0 l/m 2 min 0 min 384 W/m 31,5 km/h (5 Bft) 95,74 %
22.02.2018 14:50 6,0 C 11,1 C 6,1 C 54 % 0 lf 1021,0 hPa 0,0 l/m 2 min 0 min 381 W/m 20,3 km/h (4 Bft) 87,93 %
22.02.2018 14:52 6,1 C 10,6 C 5,6 C 54 % 0 lf 1021,0 hPa 0,0 l/m 2 min 0 min 377 W/m 36,0 km/h (5 Bft) 97,14 %
22.02.2018 14:54 6,1 C 10,6 C 5,6 C 54 % 0 lf 1021,0 hPa 0,0 l/m 2 min 0 min 372 W/m 24,8 km/h (4 Bft) 91,49 %
22.02.2018 14:56 6,1 C 9,4 C 6,1 C 54 % 0 lf 1021,0 hPa 0,0 l/m 2 min 0 min 369 W/m 38,3 km/h (5 Bft) 93,62 %
22.02.2018 14:58 5,9 C 8,9 C 6,1 C 53 % 0 lf 1021,0 hPa 0,0 l/m 2 min 0 min 369 W/m 49,6 km/h (6 Bft) 91,49 %
22.02.2018 15:00 5,8 C 8,3 C 5,6 C 53 % 0 lf 1020,9 hPa 0,0 l/m 2 min 0 min 365 W/m 47,3 km/h (6 Bft) 93,62 %
22.02.2018 15:02 5,7 C 8,3 C 4,4 C 53 % 0 lf 1020,9 hPa 0,0 l/m 2 min 0 min 357 W/m 42,8 km/h (6 Bft) 91,30 %
22.02.2018 15:04 5,7 C 10,0 C 4,4 C 54 % 0 lf 1020,9 hPa 0,0 l/m 2 min 0 min 358 W/m 33,8 km/h (5 Bft) 97,87 %
22.02.2018 15:06 5,7 C 10,6 C 3,9 C 55 % 0 lf 1020,9 hPa 0,0 l/m 2 min 0 min 353 W/m 40,6 km/h (6 Bft) 97,87 %
22.02.2018 15:08 5,7 C 10,6 C 3,9 C 55 % 0 lf 1020,9 hPa 0,0 l/m 2 min 0 min 351 W/m 42,8 km/h (6 Bft) 93,62 %
22.02.2018 15:10 5,7 C 11,1 C 3,9 C 54 % 0 lf 1020,9 hPa 0,0 l/m 2 min 0 min 348 W/m 42,8 km/h (6 Bft) 97,87 %
22.02.2018 15:12 5,7 C 11,1 C 3,9 C 55 % 0 lf 1020,9 hPa 0,0 l/m 2 min 0 min 343 W/m 29,3 km/h (5 Bft) 97,87 %
22.02.2018 15:14 5,7 C 11,1 C 3,9 C 55 % 0 lf 1020,9 hPa 0,0 l/m 2 min 0 min 336 W/m 40,6 km/h (6 Bft) 97,83 %
22.02.2018 15:16 5,7 C 11,7 C 3,9 C 55 % 0 lf 1020,9 hPa 0,0 l/m 2 min 0 min 329 W/m 31,5 km/h (5 Bft) 97,87 %
22.02.2018 15:18 5,7 C 11,1 C 3,3 C 55 % 0 lf 1020,8 hPa 0,0 l/m 2 min 0 min 328 W/m 29,3 km/h (5 Bft) 97,87 %
22.02.2018 15:20 5,8 C 11,1 C 3,3 C 55 % 0 lf 1020,8 hPa 0,0 l/m 2 min 0 min 325 W/m 33,8 km/h (5 Bft) 98,31 %
22.02.2018 15:22 5,8 C 11,1 C 3,3 C 55 % 0 lf 1020,9 hPa 0,0 l/m 2 min 0 min 320 W/m 29,3 km/h (5 Bft) 97,14 %
22.02.2018 15:24 5,8 C 11,1 C 3,3 C 55 % 0 lf 1020,8 hPa 0,0 l/m 2 min 0 min 314 W/m 31,5 km/h (5 Bft) 95,74 %
22.02.2018 15:26 5,8 C 11,1 C 3,3 C 55 % 0 lf 1020,8 hPa 0,0 l/m 2 min 0 min 308 W/m 36,0 km/h (5 Bft) 93,48 %
22.02.2018 15:28 5,8 C 10,6 C 3,3 C 54 % 0 lf 1020,8 hPa 0,0 l/m 2 min 0 min 305 W/m 38,3 km/h (5 Bft) 97,87 %
22.02.2018 15:30 5,8 C 10,6 C 3,3 C 54 % 0 lf 1020,7 hPa 0,0 l/m 2 min 0 min 299 W/m 38,3 km/h (5 Bft) 93,62 %
22.02.2018 15:32 5,8 C 10,0 C 3,3 C 54 % 0 lf 1020,8 hPa 0,0 l/m 2 min 0 min 292 W/m 45,1 km/h (6 Bft) 95,83 %
22.02.2018 15:34 5,8 C 10,0 C 3,3 C 54 % 0 lf 1020,7 hPa 0,0 l/m 2 min 0 min 289 W/m 40,6 km/h (6 Bft) 97,87 %
22.02.2018 15:36 5,7 C 10,6 C 3,3 C 55 % 0 lf 1020,7 hPa 0,0 l/m 2 min 0 min 282 W/m 38,3 km/h (5 Bft) 95,74 %
22.02.2018 15:38 5,7 C 10,0 C 3,3 C 54 % 0 lf 1020,7 hPa 0,0 l/m 2 min 0 min 279 W/m 36,0 km/h (5 Bft) 97,83 %
22.02.2018 15:40 5,7 C 9,4 C 3,3 C 55 % 0 lf 1020,7 hPa 0,0 l/m 2 min 0 min 270 W/m 33,8 km/h (5 Bft) 100,00 %
22.02.2018 15:42 5,6 C 9,4 C 3,3 C 55 % 0 lf 1020,7 hPa 0,0 l/m 2 min 0 min 266 W/m 38,3 km/h (5 Bft) 97,87 %
22.02.2018 15:44 5,6 C 9,4 C 3,3 C 55 % 0 lf 1020,7 hPa 0,0 l/m 2 min 0 min 261 W/m 29,3 km/h (5 Bft) 100,00 %
22.02.2018 15:46 5,6 C 8,3 C 3,3 C 54 % 0 lf 1020,6 hPa 0,0 l/m 2 min 0 min 257 W/m 36,0 km/h (5 Bft) 100,00 %
22.02.2018 15:48 5,5 C 9,4 C 3,3 C 54 % 0 lf 1020,6 hPa 0,0 l/m 2 min 0 min 254 W/m 36,0 km/h (5 Bft) 95,74 %
22.02.2018 15:50 5,4 C 10,0 C 3,3 C 55 % 0 lf 1020,6 hPa 0,0 l/m 2 min 0 min 249 W/m 24,8 km/h (4 Bft) 100,00 %
22.02.2018 15:52 5,4 C 9,4 C 3,3 C 55 % 0 lf 1020,6 hPa 0,0 l/m 2 min 0 min 243 W/m 29,3 km/h (5 Bft) 100,00 %
22.02.2018 15:54 5,4 C 8,3 C 3,3 C 55 % 0 lf 1020,6 hPa 0,0 l/m 2 min 0 min 236 W/m 31,5 km/h (5 Bft) 100,00 %
22.02.2018 15:56 5,4 C 8,3 C 3,3 C 55 % 0 lf 1020,7 hPa 0,0 l/m 2 min 0 min 230 W/m 31,5 km/h (5 Bft) 93,62 %
22.02.2018 15:58 5,3 C 8,9 C 2,8 C 55 % 0 lf 1020,5 hPa 0,0 l/m 2 min 0 min 227 W/m 33,8 km/h (5 Bft) 100,00 %
22.02.2018 16:00 5,3 C 8,9 C 2,8 C 56 % 0 lf 1020,6 hPa 0,0 l/m 2 min 0 min 218 W/m 29,3 km/h (5 Bft) 100,00 %
22.02.2018 16:02 5,3 C 7,8 C 2,8 C 55 % 0 lf 1020,5 hPa 0,0 l/m 2 min 0 min 211 W/m 31,5 km/h (5 Bft) 100,00 %
22.02.2018 16:04 5,2 C 8,3 C 2,8 C 55 % 0 lf 1020,5 hPa 0,0 l/m 2 min 0 min 208 W/m 42,8 km/h (6 Bft) 100,00 %
22.02.2018 16:06 5,2 C 8,3 C 2,8 C 56 % 0 lf 1020,5 hPa 0,0 l/m 2 min 0 min 203 W/m 31,5 km/h (5 Bft) 100,00 %
22.02.2018 16:08 5,1 C 8,3 C 2,8 C 56 % 0 lf 1020,5 hPa 0,0 l/m 2 min 0 min 196 W/m 31,5 km/h (5 Bft) 100,00 %
22.02.2018 16:10 5,1 C 8,3 C 2,8 C 56 % 0 lf 1020,5 hPa 0,0 l/m 2 min 0 min 189 W/m 33,8 km/h (5 Bft) 100,00 %
22.02.2018 16:12 5,1 C 8,3 C 2,8 C 56 % 0 lf 1020,5 hPa 0,0 l/m 2 min 0 min 186 W/m 38,3 km/h (5 Bft) 100,00 %
22.02.2018 16:14 5,0 C 8,3 C 2,2 C 56 % 0 lf 1020,4 hPa 0,0 l/m 2 min 0 min 180 W/m 29,3 km/h (5 Bft) 97,87 %
22.02.2018 16:16 5,0 C 8,3 C 2,2 C 56 % 0 lf 1020,5 hPa 0,0 l/m 2 min 0 min 176 W/m 29,3 km/h (5 Bft) 95,74 %
22.02.2018 16:18 4,9 C 7,8 C 2,2 C 57 % 0 lf 1020,5 hPa 0,0 l/m 2 min 0 min 169 W/m 38,3 km/h (5 Bft) 97,87 %
22.02.2018 16:20 4,9 C 6,7 C 2,2 C 57 % 0 lf 1020,5 hPa 0,0 l/m 2 min 0 min 165 W/m 36,0 km/h (5 Bft) 97,87 %
22.02.2018 16:22 4,8 C 6,7 C 2,2 C 57 % 0 lf 1020,5 hPa 0,0 l/m 2 min 0 min 158 W/m 29,3 km/h (5 Bft) 95,74 %
22.02.2018 16:24 4,8 C 6,1 C 2,2 C 56 % 0 lf 1020,5 hPa 0,0 l/m 2 min 0 min 154 W/m 40,6 km/h (6 Bft) 97,83 %
22.02.2018 16:26 4,7 C 5,6 C 2,2 C 56 % 0 lf 1020,5 hPa 0,0 l/m 2 min 0 min 147 W/m 33,8 km/h (5 Bft) 97,87 %
22.02.2018 16:28 4,7 C 5,0 C 2,2 C 57 % 0 lf 1020,6 hPa 0,0 l/m 2 min 0 min 143 W/m 31,5 km/h (5 Bft) 95,74 %
22.02.2018 16:30 4,6 C 5,0 C 2,2 C 57 % 0 lf 1020,6 hPa 0,0 l/m 2 min 0 min 138 W/m 29,3 km/h (5 Bft) 97,87 %
22.02.2018 16:32 4,5 C 5,0 C 2,2 C 57 % 0 lf 1020,6 hPa 0,0 l/m 2 min 0 min 133 W/m 29,3 km/h (5 Bft) 95,83 %
22.02.2018 16:34 4,4 C 4,4 C 2,2 C 57 % 0 lf 1020,6 hPa 0,0 l/m 2 min 0 min 128 W/m 38,3 km/h (5 Bft) 93,62 %
22.02.2018 16:36 4,4 C 4,4 C 2,2 C 58 % 0 lf 1020,6 hPa 0,0 l/m 2 min 0 min 123 W/m 36,0 km/h (5 Bft) 97,83 %
22.02.2018 16:38 4,3 C 4,4 C 1,7 C 58 % 0 lf 1020,6 hPa 0,0 l/m 2 min 0 min 117 W/m 36,0 km/h (5 Bft) 97,87 %
22.02.2018 16:40 4,2 C 4,4 C 1,7 C 58 % 0 lf 1020,6 hPa 0,0 l/m 2 min 0 min 113 W/m 29,3 km/h (5 Bft) 97,87 %
22.02.2018 16:42 4,2 C 3,9 C 1,7 C 58 % 0 lf 1020,6 hPa 0,0 l/m 2 min 0 min 108 W/m 27,0 km/h (4 Bft) 95,74 %
22.02.2018 16:44 4,2 C 3,9 C 1,7 C 58 % 0 lf 1020,7 hPa 0,0 l/m 2 min 0 min 104 W/m 40,6 km/h (6 Bft) 95,74 %
22.02.2018 16:46 4,1 C 3,9 C 1,7 C 58 % 0 lf 1020,6 hPa 0,0 l/m 2 min 0 min 100 W/m 42,8 km/h (6 Bft) 93,62 %
22.02.2018 16:48 4,0 C 3,9 C 1,7 C 58 % 0 lf 1020,6 hPa 0,0 l/m 2 min 0 min 93 W/m 27,0 km/h (4 Bft) 100,00 %
22.02.2018 16:50 4,0 C 3,9 C 1,7 C 58 % 0 lf 1020,6 hPa 0,0 l/m 2 min 0 min 87 W/m 33,8 km/h (5 Bft) 97,87 %
22.02.2018 16:52 3,9 C 3,9 C 1,7 C 58 % 0 lf 1020,6 hPa 0,0 l/m 2 min 0 min 84 W/m 29,3 km/h (5 Bft) 93,62 %
22.02.2018 16:54 3,9 C 3,9 C 1,7 C 58 % 0 lf 1020,6 hPa 0,0 l/m 2 min 0 min 80 W/m 29,3 km/h (5 Bft) 97,87 %
22.02.2018 16:56 3,8 C 3,9 C 1,7 C 59 % 0 lf 1020,6 hPa 0,0 l/m 0 min 0 min 75 W/m 29,3 km/h (5 Bft) 95,74 %
22.02.2018 16:58 3,8 C 3,9 C 1,7 C 59 % 0 lf 1020,7 hPa 0,0 l/m 0 min 0 min 71 W/m 29,3 km/h (5 Bft) 95,65 %
22.02.2018 17:00 3,7 C 3,3 C 1,7 C 59 % 0 lf 1020,7 hPa 0,0 l/m 0 min 0 min 67 W/m 38,3 km/h (5 Bft) 97,87 %
22.02.2018 17:02 3,7 C 3,3 C 1,1 C 59 % 0 lf 1020,7 hPa 0,0 l/m 0 min 0 min 62 W/m 27,0 km/h (4 Bft) 95,74 %
22.02.2018 17:04 3,7 C 3,3 C 1,1 C 60 % 0 lf 1020,7 hPa 0,0 l/m 0 min 0 min 58 W/m 24,8 km/h (4 Bft) 97,87 %
22.02.2018 17:06 3,7 C 3,3 C 1,1 C 60 % 0 lf 1020,7 hPa 0,0 l/m 0 min 0 min 54 W/m 22,5 km/h (4 Bft) 95,74 %
22.02.2018 17:08 3,6 C 3,3 C 1,1 C 60 % 0 lf 1020,7 hPa 0,0 l/m 0 min 0 min 52 W/m 29,3 km/h (5 Bft) 95,74 %
22.02.2018 17:10 3,6 C 3,3 C 1,1 C 60 % 0 lf 1020,7 hPa 0,0 l/m 0 min 0 min 48 W/m 20,3 km/h (4 Bft) 97,83 %
22.02.2018 17:12 3,6 C 3,3 C 1,1 C 61 % 0 lf 1020,7 hPa 0,0 l/m 0 min 0 min 45 W/m 24,8 km/h (4 Bft) 95,74 %
22.02.2018 17:14 3,5 C 3,3 C 1,1 C 61 % 0 lf 1020,8 hPa 0,0 l/m 0 min 0 min 41 W/m 29,3 km/h (5 Bft) 95,74 %
22.02.2018 17:16 3,4 C 3,3 C 1,1 C 61 % 0 lf 1020,7 hPa 0,0 l/m 0 min 0 min 39 W/m 29,3 km/h (5 Bft) 97,87 %
22.02.2018 17:18 3,4 C 3,3 C 1,1 C 61 % 0 lf 1020,7 hPa 0,0 l/m 0 min 0 min 36 W/m 29,3 km/h (5 Bft) 97,87 %
22.02.2018 17:20 3,3 C 2,8 C 1,1 C 61 % 0 lf 1020,8 hPa 0,0 l/m 0 min 0 min 34 W/m 31,5 km/h (5 Bft) 97,87 %
22.02.2018 17:22 3,3 C 2,8 C 1,1 C 61 % 0 lf 1020,8 hPa 0,0 l/m 0 min 0 min 32 W/m 38,3 km/h (5 Bft) 97,83 %
22.02.2018 17:24 3,2 C 2,8 C 1,1 C 61 % 0 lf 1020,8 hPa 0,0 l/m 0 min 0 min 31 W/m 33,8 km/h (5 Bft) 95,74 %
22.02.2018 17:26 3,2 C 2,8 C 1,1 C 61 % 0 lf 1020,8 hPa 0,0 l/m 0 min 0 min 30 W/m 33,8 km/h (5 Bft) 100,00 %
22.02.2018 17:28 3,2 C 2,8 C 0,6 C 61 % 0 lf 1020,8 hPa 0,0 l/m 0 min 0 min 28 W/m 29,3 km/h (5 Bft) 97,87 %
22.02.2018 17:30 3,1 C 2,8 C 0,6 C 62 % 0 lf 1020,7 hPa 0,0 l/m 0 min 0 min 27 W/m 36,0 km/h (5 Bft) 97,87 %
22.02.2018 17:32 3,1 C 2,8 C 0,6 C 62 % 0 lf 1020,8 hPa 0,0 l/m 0 min 0 min 26 W/m 27,0 km/h (4 Bft) 100,00 %
22.02.2018 17:34 3,1 C 2,8 C 0,6 C 62 % 0 lf 1020,8 hPa 0,0 l/m 0 min 0 min 25 W/m 31,5 km/h (5 Bft) 95,65 %
22.02.2018 17:36 3,0 C 2,8 C 0,6 C 62 % 0 lf 1020,7 hPa 0,0 l/m 0 min 0 min 24 W/m 31,5 km/h (5 Bft) 100,00 %
22.02.2018 17:38 2,9 C 2,8 C 0,6 C 62 % 0 lf 1020,7 hPa 0,0 l/m 0 min 0 min 23 W/m 18,0 km/h (3 Bft) 100,00 %
22.02.2018 17:40 2,9 C 2,8 C 0,6 C 62 % 0 lf 1020,7 hPa 0,0 l/m 0 min 0 min 21 W/m 29,3 km/h (5 Bft) 97,87 %
22.02.2018 17:42 2,9 C 2,8 C 0,6 C 62 % 0 lf 1020,7 hPa 0,0 l/m 0 min 0 min 19 W/m 29,3 km/h (5 Bft) 100,00 %
22.02.2018 17:44 2,9 C 2,8 C 0,6 C 62 % 0 lf 1020,7 hPa 0,0 l/m 0 min 0 min 19 W/m 31,5 km/h (5 Bft) 97,87 %
22.02.2018 17:46 2,8 C 2,2 C 0,6 C 63 % 0 lf 1020,7 hPa 0,0 l/m 0 min 0 min 18 W/m 22,5 km/h (4 Bft) 97,83 %
22.02.2018 17:48 2,8 C 2,2 C 0,0 C 63 % 0 lf 1020,7 hPa 0,0 l/m 0 min 0 min 16 W/m 22,5 km/h (4 Bft) 100,00 %
22.02.2018 17:50 2,8 C 2,2 C 0,0 C 63 % 0 lf 1020,7 hPa 0,0 l/m 0 min 0 min 15 W/m 24,8 km/h (4 Bft) 97,87 %
22.02.2018 17:52 2,7 C 2,2 C 0,0 C 63 % 0 lf 1020,8 hPa 0,0 l/m 0 min 0 min 14 W/m 24,8 km/h (4 Bft) 97,87 %
22.02.2018 17:54 2,7 C 2,2 C 0,0 C 64 % 0 lf 1020,8 hPa 0,0 l/m 0 min 0 min 12 W/m 33,8 km/h (5 Bft) 95,74 %
22.02.2018 17:56 2,6 C 1,7 C 0,0 C 64 % 0 lf 1020,8 hPa 0,0 l/m 0 min 0 min 11 W/m 27,0 km/h (4 Bft) 93,62 %
22.02.2018 17:58 2,6 C 1,7 C 0,0 C 64 % 0 lf 1020,8 hPa 0,0 l/m 0 min 0 min 10 W/m 33,8 km/h (5 Bft) 97,83 %
22.02.2018 18:00 2,6 C 1,7 C 0,0 C 65 % 0 lf 1020,9 hPa 0,0 l/m 0 min 0 min 9 W/m 33,8 km/h (5 Bft) 97,87 %
22.02.2018 18:02 2,5 C 1,7 C 0,0 C 65 % 0 lf 1020,8 hPa 0,0 l/m 0 min 0 min 8 W/m 31,5 km/h (5 Bft) 93,62 %
22.02.2018 18:04 2,4 C 1,7 C 0,0 C 65 % 0 lf 1020,8 hPa 0,0 l/m 0 min 0 min 7 W/m 27,0 km/h (4 Bft) 95,74 %
22.02.2018 18:06 2,4 C 1,7 C 0,0 C 65 % 0 lf 1020,8 hPa 0,0 l/m 0 min 0 min 6 W/m 27,0 km/h (4 Bft) 95,83 %
22.02.2018 18:08 2,3 C 1,7 C 0,0 C 65 % 0 lf 1020,8 hPa 0,0 l/m 0 min 0 min 5 W/m 27,0 km/h (4 Bft) 95,65 %
22.02.2018 18:10 2,3 C 1,7 C 0,0 C 65 % 0 lf 1020,8 hPa 0,0 l/m 0 min 0 min 5 W/m 29,3 km/h (5 Bft) 95,74 %
22.02.2018 18:12 2,3 C 1,7 C -0,6 C 66 % 0 lf 1020,8 hPa 0,0 l/m 0 min 0 min 4 W/m 31,5 km/h (5 Bft) 93,62 %
22.02.2018 18:14 2,2 C 1,7 C -0,6 C 66 % 0 lf 1020,8 hPa 0,0 l/m 0 min 0 min 0 W/m 22,5 km/h (4 Bft) 95,74 %
22.02.2018 18:16 2,2 C 1,1 C -0,6 C 66 % 0 lf 1020,9 hPa 0,0 l/m 0 min 0 min 0 W/m 20,3 km/h (4 Bft) 93,62 %
22.02.2018 18:18 2,1 C 1,1 C -0,6 C 66 % 0 lf 1020,9 hPa 0,0 l/m 0 min 0 min 0 W/m 33,8 km/h (5 Bft) 95,74 %
22.02.2018 18:20 2,1 C 1,1 C -0,6 C 67 % 0 lf 1020,9 hPa 0,0 l/m 0 min 0 min 0 W/m 22,5 km/h (4 Bft) 95,74 %
22.02.2018 18:22 2,1 C 1,1 C -0,6 C 67 % 0 lf 1021,0 hPa 0,0 l/m 0 min 0 min 0 W/m 27,0 km/h (4 Bft) 95,65 %
22.02.2018 18:24 2,0 C 1,1 C -0,6 C 67 % 0 lf 1021,0 hPa 0,0 l/m 0 min 0 min 0 W/m 29,3 km/h (5 Bft) 97,87 %
22.02.2018 18:26 1,9 C 1,1 C -0,6 C 67 % 0 lf 1021,0 hPa 0,0 l/m 0 min 0 min 0 W/m 20,3 km/h (4 Bft) 97,87 %
22.02.2018 18:28 1,9 C 1,1 C -0,6 C 68 % 0 lf 1021,0 hPa 0,0 l/m 0 min 0 min 0 W/m 20,3 km/h (4 Bft) 97,87 %
22.02.2018 18:30 1,9 C 1,1 C -0,6 C 68 % 0 lf 1021,0 hPa 0,0 l/m 0 min 0 min 0 W/m 22,5 km/h (4 Bft) 97,87 %
22.02.2018 18:32 1,8 C 1,1 C -0,6 C 68 % 0 lf 1021,0 hPa 0,0 l/m 0 min 0 min 0 W/m 22,5 km/h (4 Bft) 97,83 %
22.02.2018 18:34 1,8 C 0,6 C -0,6 C 68 % 0 lf 1021,0 hPa 0,0 l/m 0 min 0 min 0 W/m 18,0 km/h (3 Bft) 97,87 %
22.02.2018 18:36 1,8 C 0,6 C -1,1 C 69 % 0 lf 1021,0 hPa 0,0 l/m 0 min 0 min 0 W/m 27,0 km/h (4 Bft) 95,74 %
22.02.2018 18:38 1,7 C 0,6 C -1,1 C 69 % 0 lf 1021,0 hPa 0,0 l/m 0 min 0 min 0 W/m 29,3 km/h (5 Bft) 93,62 %
22.02.2018 18:40 1,7 C 0,6 C -1,1 C 69 % 0 lf 1021,1 hPa 0,0 l/m 0 min 0 min 0 W/m 18,0 km/h (3 Bft) 97,87 %
22.02.2018 18:42 1,6 C 0,6 C -1,1 C 69 % 0 lf 1021,1 hPa 0,0 l/m 0 min 0 min 0 W/m 20,3 km/h (4 Bft) 97,87 %
22.02.2018 18:44 1,6 C 0,6 C -1,1 C 70 % 0 lf 1021,0 hPa 0,0 l/m 0 min 0 min 0 W/m 22,5 km/h (4 Bft) 97,83 %
22.02.2018 18:46 1,6 C 1,1 C -1,1 C 70 % 0 lf 1021,2 hPa 0,0 l/m 0 min 0 min 0 W/m 22,5 km/h (4 Bft) 95,74 %
22.02.2018 18:48 1,5 C 0,6 C -1,1 C 70 % 0 lf 1021,2 hPa 0,0 l/m 0 min 0 min 0 W/m 27,0 km/h (4 Bft) 100,00 %
22.02.2018 18:50 1,4 C 1,1 C -1,1 C 70 % 0 lf 1021,2 hPa 0,0 l/m 0 min 0 min 0 W/m 24,8 km/h (4 Bft) 100,00 %
22.02.2018 18:52 1,4 C 1,1 C -1,1 C 70 % 0 lf 1021,2 hPa 0,0 l/m 0 min 0 min 0 W/m 27,0 km/h (4 Bft) 95,74 %
22.02.2018 18:54 1,4 C 0,6 C -1,1 C 70 % 0 lf 1021,2 hPa 0,0 l/m 0 min 0 min 0 W/m 29,3 km/h (5 Bft) 97,87 %
22.02.2018 18:56 1,3 C 0,6 C -1,1 C 70 % 0 lf 1021,3 hPa 0,0 l/m 0 min 0 min 0 W/m 20,3 km/h (4 Bft) 100,00 %
22.02.2018 18:58 1,3 C 0,6 C -1,1 C 70 % 0 lf 1021,3 hPa 0,0 l/m 0 min 0 min 0 W/m 24,8 km/h (4 Bft) 97,87 %
22.02.2018 19:00 1,3 C 0,6 C -1,1 C 70 % 0 lf 1021,4 hPa 0,0 l/m 0 min 0 min 0 W/m 22,5 km/h (4 Bft) 100,00 %
22.02.2018 19:02 1,3 C 0,6 C -1,7 C 70 % 0 lf 1021,4 hPa 0,0 l/m 0 min 0 min 0 W/m 24,8 km/h (4 Bft) 100,00 %
22.02.2018 19:04 1,2 C 0,6 C -1,7 C 71 % 0 lf 1021,3 hPa 0,0 l/m 0 min 0 min 0 W/m 20,3 km/h (4 Bft) 100,00 %
22.02.2018 19:06 1,2 C 0,0 C -1,7 C 70 % 0 lf 1021,4 hPa 0,0 l/m 0 min 0 min 0 W/m 24,8 km/h (4 Bft) 93,48 %
22.02.2018 19:08 1,2 C 0,6 C -1,7 C 71 % 0 lf 1021,4 hPa 0,0 l/m 0 min 0 min 0 W/m 20,3 km/h (4 Bft) 100,00 %
22.02.2018 19:10 1,1 C 0,6 C -1,7 C 71 % 0 lf 1021,3 hPa 0,0 l/m 0 min 0 min 0 W/m 33,8 km/h (5 Bft) 100,00 %
22.02.2018 19:12 1,1 C 0,6 C -1,1 C 71 % 0 lf 1021,4 hPa 0,0 l/m 0 min 0 min 0 W/m 31,5 km/h (5 Bft) 100,00 %
22.02.2018 19:14 1,1 C 0,6 C -1,7 C 71 % 0 lf 1021,4 hPa 0,0 l/m 0 min 0 min 0 W/m 20,3 km/h (4 Bft) 97,87 %
22.02.2018 19:16 1,0 C 0,0 C -1,7 C 72 % 0 lf 1021,4 hPa 0,0 l/m 0 min 0 min 0 W/m 20,3 km/h (4 Bft) 97,87 %
22.02.2018 19:18 1,0 C 0,0 C -1,7 C 71 % 0 lf 1021,5 hPa 0,0 l/m 0 min 0 min 0 W/m 29,3 km/h (5 Bft) 100,00 %
22.02.2018 19:20 0,9 C 0,6 C -1,1 C 72 % 0 lf 1021,5 hPa 0,0 l/m 0 min 0 min 0 W/m 31,5 km/h (5 Bft) 100,00 %
22.02.2018 19:22 0,9 C 0,6 C -1,1 C 72 % 0 lf 1021,4 hPa 0,0 l/m 0 min 0 min 0 W/m 29,3 km/h (5 Bft) 100,00 %
22.02.2018 19:24 0,9 C 0,0 C -1,7 C 72 % 0 lf 1021,5 hPa 0,0 l/m 0 min 0 min 0 W/m 22,5 km/h (4 Bft) 97,87 %
22.02.2018 19:26 0,9 C 0,0 C -1,7 C 72 % 0 lf 1021,5 hPa 0,0 l/m 0 min 0 min 0 W/m 31,5 km/h (5 Bft) 100,00 %
22.02.2018 19:28 0,9 C 0,6 C -1,1 C 72 % 0 lf 1021,5 hPa 0,0 l/m 0 min 0 min 0 W/m 33,8 km/h (5 Bft) 100,00 %
22.02.2018 19:30 0,8 C 0,6 C -1,1 C 72 % 0 lf 1021,6 hPa 0,0 l/m 0 min 0 min 0 W/m 29,3 km/h (5 Bft) 95,74 %
22.02.2018 19:32 0,8 C 0,6 C -1,7 C 72 % 0 lf 1021,6 hPa 0,0 l/m 0 min 0 min 0 W/m 31,5 km/h (5 Bft) 97,87 %
22.02.2018 19:34 0,8 C 0,6 C -1,1 C 72 % 0 lf 1021,6 hPa 0,0 l/m 0 min 0 min 0 W/m 24,8 km/h (4 Bft) 95,74 %
22.02.2018 19:36 0,8 C 0,6 C -1,7 C 72 % 0 lf 1021,6 hPa 0,0 l/m 0 min 0 min 0 W/m 36,0 km/h (5 Bft) 93,62 %
22.02.2018 19:38 0,8 C 0,0 C -1,7 C 72 % 0 lf 1021,6 hPa 0,0 l/m 0 min 0 min 0 W/m 27,0 km/h (4 Bft) 95,74 %
22.02.2018 19:40 0,7 C 0,0 C -1,7 C 72 % 0 lf 1021,7 hPa 0,0 l/m 0 min 0 min 0 W/m 29,3 km/h (5 Bft) 93,62 %
22.02.2018 19:42 0,7 C 0,0 C -1,7 C 72 % 0 lf 1021,7 hPa 0,0 l/m 0 min 0 min 0 W/m 33,8 km/h (5 Bft) 97,78 %
22.02.2018 19:44 0,7 C 0,0 C -1,7 C 72 % 0 lf 1021,7 hPa 0,0 l/m 0 min 0 min 0 W/m 31,5 km/h (5 Bft) 93,62 %
22.02.2018 19:46 0,7 C 0,0 C -1,7 C 72 % 0 lf 1021,8 hPa 0,0 l/m 0 min 0 min 0 W/m 20,3 km/h (4 Bft) 89,36 %
22.02.2018 19:48 0,7 C 0,0 C -1,7 C 72 % 0 lf 1021,8 hPa 0,0 l/m 0 min 0 min 0 W/m 36,0 km/h (5 Bft) 91,49 %
22.02.2018 19:50 0,6 C 0,0 C -1,7 C 72 % 0 lf 1021,8 hPa 0,0 l/m 0 min 0 min 0 W/m 33,8 km/h (5 Bft) 91,49 %
22.02.2018 19:52 0,6 C 0,0 C -1,7 C 72 % 0 lf 1021,8 hPa 0,0 l/m 0 min 0 min 0 W/m 22,5 km/h (4 Bft) 93,62 %
22.02.2018 19:54 0,6 C 0,0 C -1,7 C 72 % 0 lf 1021,8 hPa 0,0 l/m 0 min 0 min 0 W/m 24,8 km/h (4 Bft) 91,30 %
22.02.2018 19:56 0,5 C 0,0 C -1,7 C 72 % 0 lf 1021,8 hPa 0,0 l/m 0 min 0 min 0 W/m 18,0 km/h (3 Bft) 89,36 %
22.02.2018 19:58 0,5 C 0,0 C -1,7 C 72 % 0 lf 1021,9 hPa 0,0 l/m 0 min 0 min 0 W/m 31,5 km/h (5 Bft) 93,62 %
22.02.2018 20:00 0,5 C 0,0 C -1,7 C 73 % 0 lf 1021,9 hPa 0,0 l/m 0 min 0 min 0 W/m 24,8 km/h (4 Bft) 93,62 %
22.02.2018 20:02 0,5 C 0,0 C -1,7 C 73 % 0 lf 1021,9 hPa 0,0 l/m 0 min 0 min 0 W/m 20,3 km/h (4 Bft) 91,49 %
22.02.2018 20:04 0,5 C 0,0 C -2,2 C 73 % 0 lf 1021,9 hPa 0,0 l/m 0 min 0 min 0 W/m 18,0 km/h (3 Bft) 93,48 %
22.02.2018 20:06 0,5 C -0,6 C -2,2 C 73 % 0 lf 1021,8 hPa 0,0 l/m 0 min 0 min 0 W/m 27,0 km/h (4 Bft) 89,36 %
22.02.2018 20:08 0,5 C -0,6 C -2,2 C 73 % 0 lf 1021,9 hPa 0,0 l/m 0 min 0 min 0 W/m 22,5 km/h (4 Bft) 93,62 %
22.02.2018 20:10 0,4 C -0,6 C -2,2 C 73 % 0 lf 1021,9 hPa 0,0 l/m 0 min 0 min 0 W/m 20,3 km/h (4 Bft) 91,49 %
22.02.2018 20:12 0,4 C -0,6 C -2,2 C 73 % 0 lf 1021,9 hPa 0,0 l/m 0 min 0 min 0 W/m 24,8 km/h (4 Bft) 93,62 %
22.02.2018 20:14 0,3 C -0,6 C -2,2 C 73 % 0 lf 1021,9 hPa 0,0 l/m 0 min 0 min 0 W/m 20,3 km/h (4 Bft) 89,36 %
22.02.2018 20:16 0,3 C -0,6 C -2,2 C 73 % 0 lf 1021,9 hPa 0,0 l/m 0 min 0 min 0 W/m 20,3 km/h (4 Bft) 91,30 %
22.02.2018 20:18 0,3 C -0,6 C -2,2 C 73 % 0 lf 1022,0 hPa 0,0 l/m 0 min 0 min 0 W/m 18,0 km/h (3 Bft) 95,74 %
22.02.2018 20:20 0,3 C -0,6 C -2,2 C 73 % 0 lf 1021,9 hPa 0,0 l/m 0 min 0 min 0 W/m 18,0 km/h (3 Bft) 95,74 %
22.02.2018 20:22 0,3 C -0,6 C -2,2 C 73 % 0 lf 1022,0 hPa 0,0 l/m 0 min 0 min 0 W/m 27,0 km/h (4 Bft) 89,36 %
22.02.2018 20:24 0,2 C -1,1 C -2,8 C 73 % 0 lf 1021,9 hPa 0,0 l/m 0 min 0 min 0 W/m 15,8 km/h (3 Bft) 95,74 %
22.02.2018 20:26 0,2 C -0,6 C -2,8 C 73 % 0 lf 1021,9 hPa 0,0 l/m 0 min 0 min 0 W/m 24,8 km/h (4 Bft) 93,62 %
22.02.2018 20:28 0,2 C -0,6 C -2,2 C 74 % 0 lf 1021,9 hPa 0,0 l/m 0 min 0 min 0 W/m 15,8 km/h (3 Bft) 95,65 %
22.02.2018 20:30 0,2 C -0,6 C -2,2 C 74 % 0 lf 1021,8 hPa 0,0 l/m 0 min 0 min 0 W/m 29,3 km/h (5 Bft) 95,74 %
22.02.2018 20:32 0,1 C -0,6 C -2,2 C 74 % 0 lf 1021,8 hPa 0,0 l/m 0 min 0 min 0 W/m 18,0 km/h (3 Bft) 89,36 %
22.02.2018 20:34 0,1 C -0,6 C -2,2 C 74 % 0 lf 1021,8 hPa 0,0 l/m 0 min 0 min 0 W/m 20,3 km/h (4 Bft) 95,74 %
22.02.2018 20:36 0,1 C -0,6 C -2,2 C 74 % 0 lf 1021,8 hPa 0,0 l/m 0 min 0 min 0 W/m 29,3 km/h (5 Bft) 95,74 %
22.02.2018 20:38 0,1 C -0,6 C -2,2 C 74 % 0 lf 1021,8 hPa 0,0 l/m 0 min 0 min 0 W/m 22,5 km/h (4 Bft) 95,74 %
22.02.2018 20:40 0,1 C -0,6 C -2,2 C 74 % 0 lf 1021,9 hPa 0,0 l/m 0 min 0 min 0 W/m 22,5 km/h (4 Bft) 95,65 %
22.02.2018 20:42 0,0 C -0,6 C -2,2 C 74 % 0 lf 1021,8 hPa 0,0 l/m 0 min 0 min 0 W/m 18,0 km/h (3 Bft) 95,74 %
22.02.2018 20:44 0,0 C -0,6 C -2,2 C 74 % 0 lf 1021,8 hPa 0,0 l/m 0 min 0 min 0 W/m 20,3 km/h (4 Bft) 93,62 %
22.02.2018 20:46 -0,1 C -0,6 C -2,2 C 74 % 0 lf 1021,9 hPa 0,0 l/m 0 min 0 min 0 W/m 22,5 km/h (4 Bft) 95,74 %
22.02.2018 20:48 -0,1 C -1,1 C -2,2 C 74 % 0 lf 1021,9 hPa 0,0 l/m 0 min 0 min 0 W/m 15,8 km/h (3 Bft) 95,74 %
22.02.2018 20:50 -0,1 C -1,1 C -2,2 C 74 % 0 lf 1021,8 hPa 0,0 l/m 0 min 0 min 0 W/m 15,8 km/h (3 Bft) 97,87 %
22.02.2018 20:52 -0,1 C -1,1 C -2,8 C 74 % 0 lf 1021,8 hPa 0,0 l/m 0 min 0 min 0 W/m 22,5 km/h (4 Bft) 97,83 %
22.02.2018 20:54 -0,1 C -0,6 C -2,2 C 75 % 0 lf 1021,9 hPa 0,0 l/m 0 min 0 min 0 W/m 22,5 km/h (4 Bft) 97,87 %
22.02.2018 20:56 -0,1 C -0,6 C -2,2 C 75 % 0 lf 1021,9 hPa 0,0 l/m 0 min 0 min 0 W/m 20,3 km/h (4 Bft) 95,74 %
22.02.2018 20:58 -0,1 C -1,1 C -2,2 C 75 % 0 lf 1022,0 hPa 0,0 l/m 0 min 0 min 0 W/m 24,8 km/h (4 Bft) 97,87 %
22.02.2018 21:00 -0,2 C -1,1 C -2,8 C 75 % 0 lf 1022,0 hPa 0,0 l/m 0 min 0 min 0 W/m 15,8 km/h (3 Bft) 97,87 %
22.02.2018 21:02 -0,2 C -1,1 C -2,8 C 75 % 0 lf 1021,9 hPa 0,0 l/m 0 min 0 min 0 W/m 18,0 km/h (3 Bft) 95,65 %
22.02.2018 21:04 -0,2 C -1,1 C -2,8 C 75 % 0 lf 1022,0 hPa 0,0 l/m 0 min 0 min 0 W/m 15,8 km/h (3 Bft) 97,87 %
22.02.2018 21:06 -0,2 C -1,1 C -2,8 C 75 % 0 lf 1022,0 hPa 0,0 l/m 0 min 0 min 0 W/m 20,3 km/h (4 Bft) 97,92 %
22.02.2018 21:08 -0,3 C -1,1 C -2,8 C 75 % 0 lf 1022,0 hPa 0,0 l/m 0 min 0 min 0 W/m 15,8 km/h (3 Bft) 97,87 %
22.02.2018 21:10 -0,3 C -1,1 C -2,8 C 75 % 0 lf 1022,0 hPa 0,0 l/m 0 min 0 min 0 W/m 15,8 km/h (3 Bft) 100,00 %
22.02.2018 21:12 -0,3 C -1,1 C -2,8 C 75 % 0 lf 1022,0 hPa 0,0 l/m 0 min 0 min 0 W/m 20,3 km/h (4 Bft) 95,74 %
22.02.2018 21:14 -0,3 C -1,1 C -2,8 C 75 % 0 lf 1022,0 hPa 0,0 l/m 0 min 0 min 0 W/m 20,3 km/h (4 Bft) 91,30 %
22.02.2018 21:16 -0,3 C -1,1 C -2,8 C 75 % 0 lf 1022,0 hPa 0,0 l/m 0 min 0 min 0 W/m 15,8 km/h (3 Bft) 97,87 %
22.02.2018 21:18 -0,3 C -1,1 C -2,8 C 75 % 0 lf 1021,9 hPa 0,0 l/m 0 min 0 min 0 W/m 18,0 km/h (3 Bft) 100,00 %
22.02.2018 21:20 -0,4 C -1,1 C -2,8 C 75 % 0 lf 1022,0 hPa 0,0 l/m 0 min 0 min 0 W/m 18,0 km/h (3 Bft) 100,00 %
22.02.2018 21:22 -0,4 C -1,1 C -2,8 C 75 % 0 lf 1022,0 hPa 0,0 l/m 0 min 0 min 0 W/m 15,8 km/h (3 Bft) 100,00 %
22.02.2018 21:24 -0,4 C -1,1 C -2,8 C 75 % 0 lf 1022,0 hPa 0,0 l/m 0 min 0 min 0 W/m 15,8 km/h (3 Bft) 95,74 %
22.02.2018 21:26 -0,4 C -1,7 C -2,8 C 75 % 0 lf 1022,0 hPa 0,0 l/m 0 min 0 min 0 W/m 13,5 km/h (3 Bft) 100,00 %
22.02.2018 21:28 -0,5 C -1,1 C -3,3 C 75 % 0 lf 1022,0 hPa 0,0 l/m 0 min 0 min 0 W/m 18,0 km/h (3 Bft) 100,00 %
22.02.2018 21:30 -0,5 C -1,1 C -3,3 C 75 % 0 lf 1022,0 hPa 0,0 l/m 0 min 0 min 0 W/m 13,5 km/h (3 Bft) 97,87 %
22.02.2018 21:32 -0,5 C -1,1 C -3,3 C 75 % 0 lf 1022,0 hPa 0,0 l/m 0 min 0 min 0 W/m 18,0 km/h (3 Bft) 100,00 %
22.02.2018 21:34 -0,6 C -1,1 C -3,3 C 75 % 0 lf 1021,9 hPa 0,0 l/m 0 min 0 min 0 W/m 13,5 km/h (3 Bft) 97,87 %
22.02.2018 21:36 -0,6 C -1,1 C -3,3 C 75 % 0 lf 1022,0 hPa 0,0 l/m 0 min 0 min 0 W/m 20,3 km/h (4 Bft) 97,87 %
22.02.2018 21:38 -0,6 C -1,1 C -3,3 C 75 % 0 lf 1021,9 hPa 0,0 l/m 0 min 0 min 0 W/m 20,3 km/h (4 Bft) 97,83 %
22.02.2018 21:40 -0,6 C -1,1 C -3,3 C 75 % 0 lf 1022,0 hPa 0,0 l/m 0 min 0 min 0 W/m 13,5 km/h (3 Bft) 95,74 %
22.02.2018 21:42 -0,6 C -1,1 C -3,3 C 76 % 0 lf 1022,0 hPa 0,0 l/m 0 min 0 min 0 W/m 20,3 km/h (4 Bft) 95,74 %
22.02.2018 21:44 -0,7 C -1,1 C -3,3 C 76 % 0 lf 1022,0 hPa 0,0 l/m 0 min 0 min 0 W/m 15,8 km/h (3 Bft) 95,74 %
22.02.2018 21:46 -0,7 C -1,1 C -3,3 C 76 % 0 lf 1022,0 hPa 0,0 l/m 0 min 0 min 0 W/m 15,8 km/h (3 Bft) 93,62 %
22.02.2018 21:48 -0,7 C -1,1 C -3,3 C 76 % 0 lf 1022,0 hPa 0,0 l/m 0 min 0 min 0 W/m 18,0 km/h (3 Bft) 97,87 %
22.02.2018 21:50 -0,7 C -1,1 C -3,3 C 76 % 0 lf 1022,0 hPa 0,0 l/m 0 min 0 min 0 W/m 20,3 km/h (4 Bft) 97,83 %
22.02.2018 21:52 -0,7 C -1,1 C -3,9 C 76 % 0 lf 1022,0 hPa 0,0 l/m 0 min 0 min 0 W/m 15,8 km/h (3 Bft) 93,62 %
22.02.2018 21:54 -0,7 C -1,1 C -3,3 C 76 % 0 lf 1022,0 hPa 0,0 l/m 0 min 0 min 0 W/m 13,5 km/h (3 Bft) 97,87 %
22.02.2018 21:56 -0,8 C -1,1 C -3,3 C 76 % 0 lf 1022,0 hPa 0,0 l/m 0 min 0 min 0 W/m 20,3 km/h (4 Bft) 95,74 %
22.02.2018 21:58 -0,8 C -1,7 C -3,3 C 76 % 0 lf 1022,1 hPa 0,0 l/m 0 min 0 min 0 W/m 18,0 km/h (3 Bft) 95,74 %
22.02.2018 22:00 -0,8 C -1,7 C -3,9 C 76 % 0 lf 1022,0 hPa 0,0 l/m 0 min 0 min 0 W/m 15,8 km/h (3 Bft) 97,83 %
22.02.2018 22:02 -0,8 C -1,1 C -3,3 C 76 % 0 lf 1022,0 hPa 0,0 l/m 0 min 0 min 0 W/m 20,3 km/h (4 Bft) 97,87 %
22.02.2018 22:04 -0,8 C -1,1 C -3,3 C 76 % 0 lf 1021,9 hPa 0,0 l/m 0 min 0 min 0 W/m 18,0 km/h (3 Bft) 95,74 %
22.02.2018 22:06 -0,9 C -1,7 C -3,3 C 76 % 0 lf 1021,9 hPa 0,0 l/m 0 min 0 min 0 W/m 20,3 km/h (4 Bft) 97,87 %
22.02.2018 22:08 -0,9 C -1,1 C -3,3 C 76 % 0 lf 1022,0 hPa 0,0 l/m 0 min 0 min 0 W/m 18,0 km/h (3 Bft) 97,87 %
22.02.2018 22:10 -0,9 C -1,1 C -3,3 C 76 % 0 lf 1021,9 hPa 0,0 l/m 0 min 0 min 0 W/m 11,3 km/h (2 Bft) 100,00 %
22.02.2018 22:12 -0,9 C -1,1 C -3,3 C 76 % 0 lf 1022,0 hPa 0,0 l/m 0 min 0 min 0 W/m 13,5 km/h (3 Bft) 95,65 %
22.02.2018 22:14 -0,9 C -1,7 C -3,3 C 76 % 0 lf 1022,0 hPa 0,0 l/m 0 min 0 min 0 W/m 15,8 km/h (3 Bft) 100,00 %
22.02.2018 22:16 -0,9 C -1,7 C -3,9 C 76 % 0 lf 1022,0 hPa 0,0 l/m 0 min 0 min 0 W/m 18,0 km/h (3 Bft) 100,00 %
22.02.2018 22:18 -0,9 C -1,7 C -3,9 C 76 % 0 lf 1022,0 hPa 0,0 l/m 0 min 0 min 0 W/m 11,3 km/h (2 Bft) 97,87 %
22.02.2018 22:20 -0,9 C -1,7 C -3,9 C 76 % 0 lf 1022,0 hPa 0,0 l/m 0 min 0 min 0 W/m 20,3 km/h (4 Bft) 100,00 %
22.02.2018 22:22 -1,0 C -1,1 C -3,9 C 76 % 0 lf 1022,0 hPa 0,0 l/m 0 min 0 min 0 W/m 11,3 km/h (2 Bft) 97,87 %
22.02.2018 22:24 -1,0 C -1,1 C -3,9 C 76 % 0 lf 1022,0 hPa 0,0 l/m 0 min 0 min 0 W/m 15,8 km/h (3 Bft) 100,00 %
22.02.2018 22:26 -1,0 C -1,1 C -3,3 C 76 % 0 lf 1022,0 hPa 0,0 l/m 0 min 0 min 0 W/m 20,3 km/h (4 Bft) 97,87 %
22.02.2018 22:28 -1,0 C -1,1 C -3,3 C 76 % 0 lf 1022,0 hPa 0,0 l/m 0 min 0 min 0 W/m 11,3 km/h (2 Bft) 100,00 %
22.02.2018 22:30 -1,0 C -1,1 C -3,3 C 76 % 0 lf 1022,0 hPa 0,0 l/m 0 min 0 min 0 W/m 13,5 km/h (3 Bft) 100,00 %
22.02.2018 22:32 -1,0 C -1,1 C -3,3 C 76 % 0 lf 1022,0 hPa 0,0 l/m 0 min 0 min 0 W/m 18,0 km/h (3 Bft) 100,00 %
22.02.2018 22:34 -1,0 C -1,1 C -3,3 C 76 % 0 lf 1022,0 hPa 0,0 l/m 0 min 0 min 0 W/m 15,8 km/h (3 Bft) 95,74 %
22.02.2018 22:36 -1,0 C -1,7 C -3,3 C 76 % 0 lf 1022,1 hPa 0,0 l/m 0 min 0 min 0 W/m 13,5 km/h (3 Bft) 100,00 %
22.02.2018 22:38 -1,0 C -1,7 C -3,9 C 76 % 0 lf 1022,1 hPa 0,0 l/m 0 min 0 min 0 W/m 15,8 km/h (3 Bft) 97,87 %
22.02.2018 22:40 -1,0 C -1,1 C -3,3 C 76 % 0 lf 1022,1 hPa 0,0 l/m 0 min 0 min 0 W/m 18,0 km/h (3 Bft) 97,87 %
22.02.2018 22:42 -1,0 C -1,1 C -3,3 C 76 % 0 lf 1022,1 hPa 0,0 l/m 0 min 0 min 0 W/m 9,0 km/h (2 Bft) 97,87 %
22.02.2018 22:44 -1,0 C -1,1 C -3,3 C 76 % 0 lf 1022,1 hPa 0,0 l/m 0 min 0 min 0 W/m 18,0 km/h (3 Bft) 97,87 %
22.02.2018 22:46 -1,0 C -1,1 C -3,3 C 76 % 0 lf 1022,1 hPa 0,0 l/m 0 min 0 min 0 W/m 13,5 km/h (3 Bft) 95,74 %
22.02.2018 22:48 -1,0 C -1,1 C -2,8 C 76 % 0 lf 1022,0 hPa 0,0 l/m 0 min 0 min 0 W/m 20,3 km/h (4 Bft) 95,65 %
22.02.2018 22:50 -1,0 C -1,1 C -2,8 C 76 % 0 lf 1022,0 hPa 0,0 l/m 0 min 0 min 0 W/m 18,0 km/h (3 Bft) 93,62 %
22.02.2018 22:52 -1,0 C -1,1 C -2,8 C 76 % 0 lf 1022,1 hPa 0,0 l/m 0 min 0 min 0 W/m 18,0 km/h (3 Bft) 95,74 %
22.02.2018 22:54 -1,0 C -1,1 C -2,8 C 76 % 0 lf 1022,1 hPa 0,0 l/m 0 min 0 min 0 W/m 15,8 km/h (3 Bft) 95,74 %
22.02.2018 22:56 -1,0 C -1,1 C -2,8 C 76 % 0 lf 1022,0 hPa 0,0 l/m 0 min 0 min 0 W/m 9,0 km/h (2 Bft) 93,62 %
22.02.2018 22:58 -1,0 C -1,1 C -3,3 C 76 % 0 lf 1022,1 hPa 0,0 l/m 0 min 0 min 0 W/m 11,3 km/h (2 Bft) 93,48 %
22.02.2018 23:00 -1,0 C -1,1 C -3,3 C 76 % 0 lf 1022,1 hPa 0,0 l/m 0 min 0 min 0 W/m 15,8 km/h (3 Bft) 93,62 %
22.02.2018 23:02 -1,0 C -1,7 C -3,3 C 76 % 0 lf 1022,1 hPa 0,0 l/m 0 min 0 min 0 W/m 6,8 km/h (2 Bft) 95,74 %
22.02.2018 23:04 -1,0 C -1,7 C -3,3 C 76 % 0 lf 1022,1 hPa 0,0 l/m 0 min 0 min 0 W/m 11,3 km/h (2 Bft) 91,49 %
22.02.2018 23:06 -1,0 C -1,7 C -3,9 C 76 % 0 lf 1022,1 hPa 0,0 l/m 0 min 0 min 0 W/m 13,5 km/h (3 Bft) 91,49 %
22.02.2018 23:08 -1,0 C -1,7 C -3,9 C 76 % 0 lf 1022,0 hPa 0,0 l/m 0 min 0 min 0 W/m 15,8 km/h (3 Bft) 95,74 %
22.02.2018 23:10 -1,0 C -1,7 C -3,9 C 76 % 0 lf 1022,1 hPa 0,0 l/m 0 min 0 min 0 W/m 11,3 km/h (2 Bft) 95,65 %
22.02.2018 23:12 -1,0 C -2,2 C -3,9 C 76 % 0 lf 1022,1 hPa 0,0 l/m 0 min 0 min 0 W/m 6,8 km/h (2 Bft) 95,74 %
22.02.2018 23:14 -1,1 C -1,7 C -3,9 C 76 % 0 lf 1022,0 hPa 0,0 l/m 0 min 0 min 0 W/m 20,3 km/h (4 Bft) 95,74 %
22.02.2018 23:16 -1,1 C -1,7 C -3,9 C 76 % 0 lf 1022,1 hPa 0,0 l/m 0 min 0 min 0 W/m 9,0 km/h (2 Bft) 93,62 %
22.02.2018 23:18 -1,1 C -2,2 C -3,9 C 76 % 0 lf 1022,1 hPa 0,0 l/m 0 min 0 min 0 W/m 9,0 km/h (2 Bft) 93,62 %
22.02.2018 23:20 -1,1 C -2,2 C -4,4 C 76 % 0 lf 1022,1 hPa 0,0 l/m 0 min 0 min 0 W/m 11,3 km/h (2 Bft) 93,62 %
22.02.2018 23:22 -1,1 C -2,2 C -4,4 C 76 % 0 lf 1022,1 hPa 0,0 l/m 0 min 0 min 0 W/m 11,3 km/h (2 Bft) 95,65 %
22.02.2018 23:24 -1,1 C -2,2 C -4,4 C 76 % 0 lf 1022,1 hPa 0,0 l/m 0 min 0 min 0 W/m 15,8 km/h (3 Bft) 95,74 %
22.02.2018 23:26 -1,2 C -2,2 C -4,4 C 76 % 0 lf 1022,1 hPa 0,0 l/m 0 min 0 min 0 W/m 9,0 km/h (2 Bft) 93,62 %
22.02.2018 23:28 -1,2 C -2,2 C -4,4 C 76 % 0 lf 1022,1 hPa 0,0 l/m 0 min 0 min 0 W/m 11,3 km/h (2 Bft) 95,74 %
22.02.2018 23:30 -1,2 C -2,8 C -4,4 C 76 % 0 lf 1022,1 hPa 0,0 l/m 0 min 0 min 0 W/m 11,3 km/h (2 Bft) 93,62 %
22.02.2018 23:32 -1,2 C -2,8 C -4,4 C 76 % 0 lf 1022,1 hPa 0,0 l/m 0 min 0 min 0 W/m 9,0 km/h (2 Bft) 93,62 %
22.02.2018 23:34 -1,3 C -2,8 C -4,4 C 76 % 0 lf 1022,1 hPa 0,0 l/m 0 min 0 min 0 W/m 11,3 km/h (2 Bft) 93,48 %
22.02.2018 23:36 -1,3 C -2,8 C -4,4 C 76 % 0 lf 1022,1 hPa 0,0 l/m 0 min 0 min 0 W/m 11,3 km/h (2 Bft) 97,87 %
22.02.2018 23:38 -1,3 C -2,8 C -4,4 C 76 % 0 lf 1022,1 hPa 0,0 l/m 0 min 0 min 0 W/m 15,8 km/h (3 Bft) 95,74 %
22.02.2018 23:40 -1,3 C -2,2 C -4,4 C 76 % 0 lf 1022,1 hPa 0,0 l/m 0 min 0 min 0 W/m 18,0 km/h (3 Bft) 96,00 %
22.02.2018 23:42 -1,4 C -2,2 C -4,4 C 77 % 0 lf 1022,0 hPa 0,0 l/m 0 min 0 min 0 W/m 15,8 km/h (3 Bft) 97,87 %
22.02.2018 23:44 -1,4 C -2,2 C -4,4 C 77 % 0 lf 1022,1 hPa 0,0 l/m 0 min 0 min 0 W/m 6,8 km/h (2 Bft) 95,74 %
22.02.2018 23:46 -1,4 C -2,8 C -4,4 C 77 % 0 lf 1022,1 hPa 0,0 l/m 0 min 0 min 0 W/m 11,3 km/h (2 Bft) 100,00 %
22.02.2018 23:48 -1,5 C -2,8 C -4,4 C 77 % 0 lf 1022,1 hPa 0,0 l/m 0 min 0 min 0 W/m 11,3 km/h (2 Bft) 95,74 %
22.02.2018 23:50 -1,5 C -2,8 C -4,4 C 77 % 0 lf 1022,0 hPa 0,0 l/m 0 min 0 min 0 W/m 9,0 km/h (2 Bft) 97,87 %
22.02.2018 23:52 -1,5 C -2,8 C -5,0 C 77 % 0 lf 1022,0 hPa 0,0 l/m 0 min 0 min 0 W/m 9,0 km/h (2 Bft) 95,74 %
22.02.2018 23:54 -1,6 C -2,8 C -5,0 C 77 % 0 lf 1022,0 hPa 0,0 l/m 0 min 0 min 0 W/m 6,8 km/h (2 Bft) 93,62 %
22.02.2018 23:56 -1,6 C -2,8 C -5,0 C 77 % 0 lf 1021,9 hPa 0,0 l/m 0 min 0 min 0 W/m 9,0 km/h (2 Bft) 97,83 %
22.02.2018 23:58 -1,6 C -2,8 C -5,0 C 77 % 0 lf 1021,9 hPa 0,0 l/m 0 min 0 min 0 W/m 13,5 km/h (3 Bft) 93,62 %
_ Min-Zeit 07:28 06:32 07:04 14:12 00:00 16:14 - - - - 23:02 00:02
Minimum _ -2,7 C -3,3 C -5,6 C 53 % 0 lf 1020,4 hPa - - - - 6,8 km/h (2 Bft) 14,29 %
_ Max-Zeit 14:36 13:44 11:46 08:32 00:00 09:12 00:00 12:07 00:00 12:52 14:58 00:00
Maximum _ 6,1 C 13,9 C 6,1 C 88 % 0 lf 1023,3 hPa 0,0 l/m 3 min 0 min 503 W/m 49,6 km/h
O-NO (6 Bft)
100,00 %
Durchschnitt _ 0,7 C 2,1 C -1,3 C 74 % 0 lf 1022,2 hPa #0,0 l/m #8:44 h #0 min. 277 W/m 24,1 km/h (4 Bft) 96,36 %
© 2018 W. Hausmann